[{"header": {"dx": 0.06612293990616946, "dy": 0.0552356325346848, "nx": 98, "ny": 59, "la1": 35.046912555036876, "la2": 31.78801023549047, "lo1": -121.43107172385933, "lo2": -114.95102361305473, "refTime": "2026041720", "parameterCategory": 1, "parameterNumber": 2}, "data": [11.25, 12.96, 14.66, 14.3, 15.24, 14.46, 14.07, 14.3, 13.89, 13.99, 13.96, 13.09, 13.86, 12.96, 12.01, 11.35, 10.09, 9.3, 9.3, 10.01, 11.6, 12.04, 10.68, 11.06, 11.18, 8.22, -5.4, -10.41, -8.53, -8.53, -5.6, -5.8, -3.04, -2.71, 0.0, 0.0, 0.0, 0.0, 1.84, 4.6, 0.0, -11.18, -11.28, -12.14, -15.34, -18.14, -22.35, -25.03, -19.22, -13.67, -13.28, -13.7, -14.11, -14.53, -13.99, -12.52, -11.06, -13.02, -11.06, -11.06, -13.99, -11.06, -4.81, -6.8, -5.64, -4.95, -5.09, -4.42, -4.42, -6.34, -4.42, -4.3, -4.3, -2.21, -2.21, 0.0, 0.0, 1.58, 1.63, 1.47, 2.81, 4.98, 5.8, 6.94, 8.53, 9.67, 10.8, 10.46, 10.84, 10.84, 12.3, 13.88, 14.75, 15.2, -6.6, -2.81, -4.24, -3.14, 11.25, 12.07, 12.96, 14.3, 14.78, 14.85, 14.07, 14.3, 14.42, 14.4, 13.75, 14.75, 13.41, 12.44, 12.83, 11.45, 9.86, 10.35, 9.66, 9.67, 11.5, 11.6, 12.04, 12.71, 10.58, 10.84, 0.0, -6.7, -6.7, -5.6, -5.31, -5.15, -3.96, -3.11, -2.54, -4.0, -5.03, -7.15, -8.91, -10.28, -12.14, -13.01, -12.71, -14.61, -19.07, -23.25, -25.48, -20.12, -13.67, -14.55, -13.7, -14.9, -14.9, -14.11, -13.59, -13.02, -13.02, -12.65, -13.99, -13.99, -13.99, -10.75, -8.43, -6.8, -5.64, -7.0, -7.2, -7.2, -6.34, -6.34, -6.52, -4.42, -2.65, -2.5, -2.15, 0.0, 0.0, 1.58, 1.63, 1.47, 2.81, 4.98, 5.8, 6.94, 8.53, 9.67, 10.8, 10.46, 10.84, 10.84, 12.3, 13.88, 14.75, 15.2, -6.6, -2.81, -4.24, -3.14, 11.25, 12.07, 12.96, 14.3, 14.3, 14.78, 14.46, 14.71, 14.23, 14.31, 14.16, 12.96, 13.75, 12.58, 11.03, 11.28, 10.88, 10.68, 10.04, 11.12, 9.67, 11.62, 11.2, 11.99, 12.39, 10.73, 3.39, 0.0, -2.19, -1.91, -4.05, -4.18, -5.63, -4.15, -4.21, -7.51, -8.87, -8.87, -9.46, -10.68, -11.2, -13.81, -17.19, -20.36, -22.13, -21.46, -17.43, -13.41, -14.55, -14.99, -14.99, -14.9, -14.9, -13.59, -12.27, -12.65, -12.65, -14.84, -14.84, -13.02, -13.02, -8.43, -6.8, -5.64, -7.82, -8.05, -7.0, -7.0, -7.0, -8.93, -7.2, -5.09, -2.57, -2.5, 0.0, 0.0, 0.0, 0.0, 1.42, 1.47, 2.56, 3.85, 4.81, 5.86, 7.14, 8.75, 9.48, 10.46, 10.6, 11.72, 15.04, 16.31, 15.27, 10.75, -10.43, -6.2, -4.1, -3.44, 10.17, 12.07, 12.96, 13.58, 14.3, 14.78, 14.4, 14.79, 14.65, 14.6, 14.16, 13.86, 14.19, 11.87, 11.45, 10.88, 10.88, 11.09, 9.67, 10.04, 9.3, 10.0, 10.0, 10.75, 11.09, 12.96, 7.27, 0.0, 0.0, 0.0, 0.0, 0.0, 0.0, 0.0, -3.96, -10.73, -10.08, -9.96, -11.5, -12.74, -15.2, -18.48, -18.91, -17.26, -15.2, -13.86, -13.86, -14.3, -14.55, -14.55, -14.55, -14.11, -13.19, -13.19, -12.27, -12.27, -12.65, -13.02, -13.02, -13.02, -10.75, -6.8, -5.48, -5.48, -7.59, -9.49, -9.77, -10.02, -11.16, -9.92, -7.6, -4.95, -2.57, 0.0, 0.0, 0.0, 0.0, 0.0, 1.51, 1.38, 2.2, 3.53, 4.81, 4.32, 5.43, 6.16, 8.53, 9.46, 9.48, 13.99, 16.44, 16.12, 15.65, 10.43, 13.41, -7.44, -5.8, -4.93, 10.17, 12.07, 12.96, 12.64, 13.58, 13.58, 14.19, 14.75, 14.38, 15.05, 14.6, 13.72, 14.3, 12.58, 11.78, 11.45, 10.4, 10.04, 9.67, 9.42, 10.37, 11.2, 10.4, 10.4, 10.32, 11.71, 11.2, 0.0, 0.0, 3.82, 8.93, 11.18, 11.4, 12.14, 10.12, -6.4, -12.65, -13.59, -15.93, -17.26, -16.99, -15.2, -13.41, -13.86, -13.86, -13.86, -14.3, -14.11, -14.55, -14.42, -13.7, -11.44, -11.44, -11.8, -13.19, -13.19, -12.65, -13.02, -13.99, -10.75, -8.85, -7.36, -5.31, -7.59, -9.22, -10.33, -9.42, -9.17, -10.17, -7.92, -7.75, -4.91, -2.59, 0.0, 2.21, 3.14, 1.72, 0.0, 0.0, 2.4, 2.13, 3.41, 3.18, 3.21, 4.54, 4.72, 6.4, 6.76, 11.06, 13.74, 14.51, 13.42, 14.75, 9.48, 12.96, -7.44, -6.67, -4.93, 10.17, 11.0, 11.93, 11.64, 12.64, 13.74, 13.39, 14.13, 14.39, 14.84, 15.05, 14.16, 14.3, 12.86, 12.42, 11.3, 10.04, 9.42, 7.54, 9.42, 9.08, 9.42, 10.73, 10.73, 10.41, 10.04, 8.53, -0.0, 12.96, 12.07, 6.95, 6.17, 6.17, 2.6, -2.93, -11.09, -13.15, -13.86, -15.2, -14.11, -12.35, -14.03, -13.32, -14.16, -14.16, -14.6, -13.99, -13.57, -12.27, -12.27, -11.88, -9.8, -11.09, -11.44, -13.19, -13.19, -13.19, -13.19, -12.16, -11.8, -8.31, -6.9, -6.6, -6.8, -8.93, -9.42, -9.67, -8.21, -5.96, -7.06, -7.69, -4.88, -2.27, 0.0, 0.0, 4.01, 3.25, 1.61, 0.0, 1.29, 3.18, 3.06, 3.06, 3.06, 3.34, 4.32, 5.15, 7.6, 7.4, 11.17, 12.87, 15.65, 13.02, 10.79, 12.96, -4.24, -6.67, -5.6, 10.17, 11.0, 11.93, 11.64, 11.45, 12.64, 12.33, 13.61, 14.79, 14.84, 14.61, 13.44, 14.3, 12.86, 13.15, 9.08, 7.54, 6.44, 6.44, 7.54, 9.42, 10.47, 9.8, 8.1, 7.51, 3.68, -0.0, -0.0, -0.0, -0.0, -0.0, -0.0, -0.0, -4.2, -7.9, -11.12, -12.52, -13.41, -11.28, -10.08, -11.87, -12.58, -12.79, -14.11, -14.53, -13.59, -14.39, -13.03, -11.88, -9.8, -10.12, -9.8, -11.44, -13.7, -14.03, -13.59, -13.88, -12.79, -12.79, -11.09, -8.05, -6.9, -6.8, -8.93, -9.17, -9.17, -8.43, -5.65, -3.79, -3.88, -4.46, -4.27, -1.69, 0.0, 0.0, 1.88, 1.68, 1.48, 1.33, 1.21, 3.18, 4.43, 3.65, 3.76, 4.0, 5.81, 7.14, 4.88, 3.77, 12.64, 13.76, 12.33, 11.06, 12.45, 13.41, -4.1, -6.44, -5.8, 9.2, 9.48, 10.39, 10.39, 11.45, 11.17, 12.33, 13.26, 14.18, 13.99, 13.97, 12.74, 14.11, 10.47, 9.8, 3.82, 3.96, 4.24, 5.8, 6.44, 7.51, 7.51, 4.81, 4.38, 4.38, 2.93, -0.0, 3.04, -0.0, -3.53, -5.0, -2.28, -2.19, -5.95, -9.58, -9.58, -10.96, -11.18, -12.52, -11.62, -11.18, -12.07, -13.01, -12.79, -13.19, -12.87, -12.02, -13.39, -11.52, -10.12, -10.01, -11.5, -12.87, -13.59, -13.59, -13.59, -13.59, -13.44, -11.99, -10.37, -7.51, -6.9, -7.82, -8.68, -8.93, -8.43, -6.69, -3.79, -1.83, -3.79, -4.34, -2.27, -1.78, 0.0, 0.0, 0.0, 0.0, 1.33, 1.29, 1.3, 3.79, 5.67, 6.1, 5.35, 5.96, 8.14, 9.2, 8.8, 18.33, -0.0, 5.09, 10.05, 11.99, 13.67, 12.72, -3.04, -6.21, -5.8, 8.0, 9.48, 10.39, 8.87, 9.92, 11.17, 12.33, 12.01, 14.18, 14.39, 13.59, 12.39, 14.84, 8.05, 4.24, -0.0, -0.0, -0.0, 1.83, 2.06, -0.0, -0.0, -0.0, -0.0, -0.0, -0.0, -0.0, 2.1, -0.0, -5.95, -6.97, -4.48, -2.06, -2.37, -8.94, -9.55, -9.6, -10.41, -11.62, -11.18, -12.52, -12.52, -11.87, -11.99, -11.44, -9.8, -12.87, -13.59, -12.36, -11.87, -11.8, -11.12, -12.72, -13.15, -13.67, -13.67, -13.67, -12.71, -11.2, -8.85, -7.51, -7.82, -7.82, -8.05, -7.2, -6.69, -6.87, -4.42, -2.43, -4.66, -5.09, -2.34, 0.0, -1.94, -1.63, 0.0, 0.0, 1.29, 1.25, 1.26, 2.96, 6.1, 7.36, 7.59, 7.82, 9.42, 11.48, 14.18, 13.39, 4.81, 8.1, 12.3, 12.96, 13.41, 11.16, -3.04, -6.21, -5.4, 7.8, 9.48, 8.87, 8.87, 8.0, 9.2, 8.97, 12.01, 12.57, 13.39, 13.02, 12.65, 13.86, 12.71, 6.4, -0.0, -2.28, -0.0, -0.0, -0.0, -0.0, -0.0, -0.0, -0.0, -0.0, -0.0, -0.0, -0.0, -0.0, -5.4, -5.6, -0.0, -0.0, -0.0, -5.2, -10.4, -9.6, -8.3, -11.28, -12.52, -12.07, -12.27, -10.35, -9.97, -9.08, -10.79, -11.16, -12.42, -12.73, -13.02, -12.27, -12.27, -12.79, -12.74, -12.74, -13.75, -13.15, -12.04, -11.2, -8.85, -8.85, -9.92, -9.67, -8.28, -5.09, -7.8, -8.0, -5.09, -2.72, -3.47, -3.58, -3.07, -3.16, -2.28, -1.94, 0.0, 0.0, 1.25, 1.17, 0.0, 1.41, 4.01, 8.51, 9.61, 9.13, 9.48, 11.53, 13.39, 14.11, 11.12, 12.3, 12.52, 12.52, 12.96, 12.3, -3.96, -6.67, -5.6, 7.8, 8.47, 8.0, 8.87, 8.0, 8.0, 8.97, 10.33, 11.7, 11.38, 12.02, 12.65, 13.59, 14.03, 11.06, -0.0, -3.58, -0.0, 10.43, 10.43, -0.0, -0.0, -0.0, -0.0, -2.54, -2.1, -2.49, -0.0, -0.0, -0.0, -0.0, 3.11, 3.45, -0.0, -3.87, -9.3, -10.4, -11.28, -11.62, -12.52, -12.04, -10.01, -9.3, -10.04, -10.4, -9.67, -10.48, -10.19, -10.55, -10.91, -12.0, -13.1, -12.22, -12.22, -13.1, -14.79, -15.2, -12.39, -9.58, -9.48, -10.46, -9.2, -8.51, -5.09, -5.09, -9.2, -11.53, -8.0, -3.69, -4.1, -4.38, -4.66, -3.9, -2.65, -2.15, 0.0, 1.28, 1.33, 1.42, 0.0, 0.0, 2.87, 5.09, 9.74, 11.38, 11.1, 13.03, 14.56, 14.3, 13.41, 12.52, 12.52, 12.52, 12.52, 13.41, 0.0, -8.31, -6.0, 7.8, 8.47, 8.0, 7.04, 7.04, 8.0, 8.97, 10.33, 11.7, 11.7, 11.38, 11.06, 12.22, 14.53, 15.2, 13.19, 12.96, 12.52, 9.48, 12.39, 12.79, 13.19, 10.12, -0.0, -3.25, -3.04, -3.82, -0.0, 2.6, 3.39, 7.9, 7.59, 7.59, 3.61, -1.28, -6.7, -9.2, -11.4, -11.62, -11.21, -10.01, -9.66, -9.3, -11.03, -10.73, -9.75, -11.45, -10.41, -9.17, -10.82, -10.86, -12.56, -14.26, -14.22, -15.64, -17.19, -18.84, -17.26, -10.35, -9.8, -12.64, -9.43, -5.51, -4.42, -5.09, -8.6, -13.96, -8.47, -3.95, -3.33, -6.6, -6.2, -3.58, -2.98, 0.0, 0.0, 1.44, 1.83, 1.56, 0.0, 0.0, 1.46, 4.47, 8.0, 11.53, 13.59, 14.51, 14.11, 14.4, 13.77, 12.52, 11.62, 11.62, 11.53, 12.39, 12.96, -4.66, -4.52, 7.21, 7.08, 7.8, 7.04, 7.04, 8.0, 7.8, 9.42, 10.59, 10.3, 10.3, 11.06, 12.22, 12.87, 13.76, 14.79, 13.99, 6.6, 6.2, 9.8, 12.79, 13.19, 15.2, 10.43, -0.0, -6.2, -9.48, -0.0, 5.4, 6.95, 7.9, 8.49, 7.9, 5.92, 1.39, -0.0, -2.6, -10.0, -11.18, -10.6, -9.67, -11.03, -11.18, -8.8, -0.0, -0.0, -0.0, -0.0, 12.96, -11.99, -10.41, -11.99, -13.57, -15.2, -16.99, -12.96, -20.12, -22.12, -13.8, -8.53, -8.28, -7.4, -4.79, -2.28, -5.04, -9.98, -11.09, -9.86, -7.77, -7.92, -8.3, -7.8, -2.81, 0.0, 0.0, 0.0, 1.83, 2.0, 1.78, 1.83, 1.6, 1.65, 2.65, 4.35, 7.6, 11.53, 13.91, 14.3, 14.71, 13.57, 13.53, 11.55, 11.18, 11.62, 12.52, 13.41, 5.8, -2.72, 7.21, 6.47, 7.26, 6.28, 7.04, 7.04, 6.87, 8.43, 9.87, 10.59, 8.93, 8.68, 9.77, 11.38, 11.7, 9.67, 9.67, 9.42, 7.2, 7.0, 6.8, 6.8, 0.0, 0.0, 0.0, -15.2, -15.2, 14.75, -0.0, 9.17, 4.8, 5.32, 5.0, 4.6, 3.61, 4.23, 6.17, 7.27, 10.28, -10.73, -7.59, -7.27, -0.0, -0.0, -0.0, -0.0, 1.54, 5.0, 6.45, 6.94, 6.94, 3.82, 2.93, 2.93, 3.04, 5.6, -0.0, -19.22, -19.19, -8.31, -5.15, -3.07, -3.24, -3.33, -2.72, -5.23, -7.8, -5.94, -5.2, -7.21, -3.9, -3.67, 0.0, 0.0, 0.0, 0.0, 0.0, 0.0, 0.0, 2.11, 1.88, 3.59, 2.8, 4.0, 6.47, 7.4, 10.73, 11.93, 13.24, 14.79, 13.57, 11.35, 11.35, 12.42, 13.33, 13.41, 12.71, 0.0, 6.71, 6.47, 7.26, 6.28, 6.28, 6.44, 7.04, 8.65, 9.87, 9.61, 7.98, 8.68, 8.93, 8.28, 9.92, 9.67, 9.67, 5.51, 5.51, 7.6, 7.4, 0.0, 0.0, 0.0, -11.06, -15.65, -15.2, -6.6, -0.0, -0.0, 1.38, 2.02, 3.07, 1.69, 1.45, 4.05, 6.7, 8.18, -0.0, -0.0, -0.0, -0.0, -0.0, -0.0, -0.0, -0.0, -0.0, 2.49, 2.6, 5.0, 5.2, 2.71, 2.6, 2.28, 2.39, 6.44, 5.2, -11.53, -16.39, -7.8, -2.13, -3.14, 0.0, 0.0, 14.75, 15.2, 16.54, 16.99, 11.38, 0.0, 0.0, 0.0, 0.0, 0.0, -1.48, -1.83, 0.0, 0.0, 0.0, 2.11, 4.23, 4.12, 4.95, 3.85, 5.8, 7.38, 6.17, 7.2, 9.35, 12.71, 14.75, 11.99, 10.8, 11.72, 13.01, 12.83, 7.78, 7.78, 6.26, 5.96, 6.64, 5.65, 6.28, 6.44, 8.0, 8.87, 9.87, 9.61, 7.98, 8.93, 8.93, 8.51, 10.19, 7.6, 7.8, 5.51, 5.65, 7.8, 7.8, 0.0, 0.0, -7.2, -15.65, -11.06, -8.43, -5.64, -3.69, -0.0, -0.0, -0.0, 0.85, -0.0, -0.0, 1.6, 3.25, 4.6, -0.0, -0.0, -0.0, -0.0, -0.0, -0.0, -0.0, -0.0, -0.0, -0.0, 2.49, 2.49, 2.71, 2.82, 2.82, 3.39, 5.21, 6.95, 5.7, -0.0, -14.75, -9.39, -2.37, 0.0, -0.0, -0.0, 2.93, 5.8, 9.17, 13.03, 15.78, 18.66, 0.0, -0.0, 0.0, -2.33, -3.3, -3.98, -4.17, -2.33, 0.0, 0.0, 2.59, 5.04, 5.96, 5.18, 5.4, 6.5, 6.65, 5.11, 5.11, 7.69, 12.02, 9.96, 10.79, 11.64, 12.14, 11.78, 9.77, 9.77, 6.26, 6.71, 6.64, 6.64, 5.65, 6.44, 8.2, 9.48, 10.13, 9.87, 7.98, 8.93, 7.4, 8.51, 8.74, 7.6, 7.6, 4.23, 4.23, 5.51, 7.8, 12.01, 15.19, 0.0, -16.09, -11.38, -8.28, -7.2, -5.09, -2.65, -1.3, -1.13, -0.99, -1.5, -0.74, -0.0, -0.0, -0.0, -0.0, -0.0, -0.0, -0.0, -0.0, -0.0, -0.0, 1.93, 2.02, 2.49, 2.49, 2.49, 2.49, 3.39, 3.53, 5.95, 7.59, 8.55, 8.55, 5.95, -0.0, -9.17, -5.6, -0.0, -0.0, -0.0, 2.6, 3.82, 6.45, 9.3, 13.59, 17.43, -0.0, -4.45, -3.51, -7.8, -7.26, -7.63, -6.08, -4.77, 0.0, 0.0, 2.22, 6.12, 5.96, 4.81, 5.81, 6.76, 7.73, 5.8, 6.0, 8.66, 9.44, 7.44, 8.85, 9.96, 11.16, 10.48, 9.62, 9.62, 5.86, 6.71, 6.11, 6.64, 7.26, 7.44, 8.2, 9.48, 10.13, 9.87, 8.21, 7.2, 8.51, 8.51, 8.74, 7.4, 7.8, 7.8, 4.12, 0.0, 0.0, 16.99, 16.54, 14.39, -16.09, -12.87, -7.4, -7.2, -5.65, -4.23, -1.42, -2.5, -2.35, -2.82, -2.41, -2.71, -2.83, -1.69, -0.0, -0.0, -0.0, -0.0, -0.0, -0.0, 1.69, 5.29, 5.52, 6.17, 3.25, 3.25, 3.25, 3.25, 5.7, 7.27, 8.55, 8.55, 8.55, 9.6, 7.9, -11.18, -12.07, -0.0, -0.0, -0.0, 3.39, 4.4, 6.64, 9.2, 10.8, 13.99, 6.36, -0.0, -0.0, -21.46, -9.24, -8.25, -8.0, -5.94, -2.17, 0.0, 1.93, 5.14, 5.14, 4.58, 5.45, 6.63, 8.44, 7.19, 7.44, 7.93, 6.4, 4.1, 5.2, 7.73, 10.12, 9.17, 8.01, 8.01, 5.86, 6.26, 6.71, 6.47, 6.64, 7.26, 8.2, 9.48, 10.39, 10.13, 8.21, 7.4, 8.51, 10.61, 9.92, 8.4, 0.0, 5.23, 8.93, 0.0, 16.54, -0.0, 7.4, -0.0, -11.06, -11.38, -5.8, -5.99, -6.16, -4.38, -2.81, -2.56, -3.53, -2.93, -3.53, -3.67, -3.82, -3.39, -1.58, -0.0, -0.0, -0.0, -0.0, 1.84, 3.68, 6.7, 8.38, 7.27, 3.25, -0.0, 2.49, 4.6, 5.7, 5.7, 7.27, 8.55, 9.2, 10.0, 11.45, 11.62, -8.22, -0.0, -0.0, 4.4, 3.11, 5.21, 6.64, 8.23, 9.2, 11.44, 14.3, 14.22, 10.4, -0.0, -10.17, -7.4, -7.21, -4.35, -1.54, 0.0, 3.04, 4.59, 2.96, 3.9, 4.62, 6.54, 8.77, 9.35, 7.93, 7.44, 6.4, 2.2, 4.24, 6.94, 8.66, 7.93, 7.69, 7.69, 6.47, 6.26, 6.71, 7.21, 6.64, 7.26, 7.26, 9.48, 10.39, 10.13, 8.43, 9.17, 7.4, 10.61, 12.01, 14.79, 11.7, 11.06, 16.99, 16.54, -12.33, -5.37, -2.79, -7.8, -10.05, -9.77, -9.22, -6.65, -5.46, -4.55, -3.96, -5.08, -4.48, -4.48, -4.32, -3.98, -3.39, -3.77, -2.6, -1.45, -0.0, -0.0, 1.23, 2.19, 5.0, 9.08, 8.23, 4.6, -0.0, -0.0, 1.93, 3.82, 4.8, 5.0, 6.14, 6.95, 8.73, 9.32, 10.58, 11.62, 11.18, -0.0, 7.59, -0.0, 3.25, 5.7, 7.27, 8.94, 11.21, 12.45, 15.69, 18.08, 20.7, 18.65, -7.8, -5.37, -5.8, -5.91, 0.0, 0.0, 3.16, 2.96, 1.54, 1.5, 3.24, 4.5, 5.81, 7.54, 8.87, 6.94, 6.0, 2.28, 0.0, 4.38, 7.69, 8.43, 5.81, 5.81, 6.47, 5.86, 6.26, 7.21, 7.8, 7.08, 7.26, 9.48, 10.39, 10.39, 8.43, 9.17, 9.17, 9.42, 12.01, 14.13, 14.79, 14.84, 13.19, -5.37, -13.95, -9.39, -8.28, -10.05, -11.38, -10.05, -9.22, -7.69, -7.19, -5.99, -5.77, -5.2, -5.2, -4.72, -4.72, -3.53, -3.92, -2.6, -2.95, -1.58, -0.0, -0.0, -0.0, 1.2, 3.06, 6.7, 5.9, -0.0, -0.0, -0.0, 1.93, 3.82, 3.98, 4.15, 5.52, 5.98, 7.9, 9.77, 11.62, 11.18, 11.18, 11.18, 7.59, -0.0, 3.25, 5.95, 7.59, 9.66, 12.04, 12.87, 14.84, 18.33, 21.58, 11.2, -3.86, -4.79, -2.66, 0.0, 0.0, 0.0, 0.0, 0.0, 0.0, 0.0, 1.38, 2.91, 4.71, 6.0, 6.0, 7.73, 7.82, 4.98, 0.0, 1.9, 6.2, 9.44, 7.32, 7.32, 6.31, 6.87, 6.26, 6.71, 7.21, 7.8, 8.47, 9.48, 9.48, 10.13, 8.43, 8.21, 8.21, 9.42, 10.61, 13.59, 14.13, 15.27, 16.09, -0.0, -11.38, -10.75, -10.43, -12.16, -12.87, -11.7, -11.38, -10.75, -8.87, -8.3, -7.73, -6.76, -6.76, -6.76, -5.77, -5.54, -4.58, -3.19, -3.07, -1.58, -1.58, -1.39, -1.23, -0.0, 2.0, 3.98, 2.1, -0.0, -0.0, -0.0, 1.69, 3.98, 3.98, 4.15, 3.98, 5.75, 8.22, 10.41, 11.62, 9.6, 0.0, 10.73, 11.18, 5.0, 3.53, 6.2, 9.67, 10.8, 11.6, 14.31, 15.18, 20.12, 0.0, -8.97, -1.84, 0.0, 0.0, 8.4, 15.17, 5.1, 0.0, 0.0, -1.6, 0.0, 0.0, 1.48, 2.91, 5.02, 5.99, 7.02, 7.73, 8.38, 0.0, 0.0, 6.4, 9.16, 8.18, 8.18, 5.96, 5.96, 6.31, 7.8, 7.21, 7.8, 8.47, 8.47, 9.24, 9.24, 8.43, 8.21, 8.21, 9.17, 10.61, 12.01, 12.01, 11.7, 16.54, 16.99, -16.54, -14.39, -12.27, -12.79, -12.65, -13.42, -12.57, -11.38, -10.75, -10.12, -8.59, -9.17, -7.73, -7.44, -7.44, -5.77, -4.58, -3.19, -3.68, -1.91, -1.64, -3.19, -2.82, -1.28, -0.0, -0.0, -0.0, -1.54, -0.0, -0.0, 1.69, 3.39, 3.98, 3.53, 3.98, 5.52, 7.27, 9.17, 12.96, 4.2, 2.97, 9.2, 8.22, -0.0, 3.53, 6.2, 6.45, 9.3, 10.4, 11.62, 13.44, 17.88, -16.88, -6.2, -2.28, 0.0, 5.8, 14.42, 16.99, 19.22, 15.99, 0.0, -1.73, 0.0, 0.0, 1.38, 3.01, 3.1, 3.69, 4.91, 7.54, 8.94, 5.31, 0.0, 4.52, 7.93, 7.1, 7.1, 6.81, 6.81, 6.31, 6.69, 7.8, 7.21, 7.8, 8.47, 8.47, 9.24, 7.6, 8.21, 8.21, 8.21, 9.42, 10.61, 10.19, 9.17, 0.0, 16.99, -16.99, -14.79, -13.02, -13.59, -12.27, -12.65, -11.87, -12.22, -11.06, -11.68, -10.99, -9.8, -9.17, -8.85, -7.44, -6.2, -5.0, -3.53, -3.68, -1.91, -1.91, -3.68, -5.2, -4.58, -3.68, -3.21, -2.06, -1.84, -0.0, -0.0, 1.91, 3.53, 3.98, 3.39, 3.82, 5.29, 5.98, 7.02, 10.79, 5.2, 0.0, 6.64, 5.0, -0.0, 2.71, 5.4, 5.4, 10.41, 10.0, 10.96, 11.18, -20.56, -21.1, -17.59, 0.0, 0.0, 6.0, 11.6, 14.75, 13.59, 15.61, 9.67, 0.0, -1.65, 0.0, 0.0, 1.83, 2.16, 2.33, 0.0, 4.67, 6.0, 5.15, 2.72, 4.52, 7.93, 8.05, 8.05, 6.81, 6.81, 7.18, 6.69, 7.12, 7.6, 8.97, 8.97, 8.47, 8.47, 7.6, 7.4, 7.4, 8.21, 6.52, 7.6, 8.51, 7.4, 0.0, 0.0, -16.99, -16.99, -16.05, -14.39, -14.11, -12.65, -12.65, -11.52, -12.65, -11.33, -11.33, -10.99, -10.3, -9.96, -8.01, -7.44, -6.2, -5.0, -3.53, -1.91, -0.0, -2.28, -5.0, -6.2, -6.5, -5.69, -4.08, -1.33, -0.0, 1.22, 2.33, 3.96, 1.76, 1.76, 3.25, 5.29, 5.29, 3.87, 5.2, 11.2, 11.18, -0.0, -0.0, -0.0, 2.28, 4.48, 6.21, 8.53, 10.35, 11.62, 13.41, 15.65, -17.52, -12.39, 0.0, 3.38, 6.64, 11.06, 14.3, 13.41, 13.44, 15.27, 0.0, -2.22, 0.0, 0.0, 0.0, 0.0, 0.0, 0.0, 0.0, 4.05, 4.52, 2.89, 4.24, 7.69, 8.05, 8.05, 6.63, 6.63, 6.99, 7.6, 7.12, 7.6, 7.6, 8.74, 8.97, 8.47, 6.9, 7.6, 7.4, 7.4, 5.81, 6.52, 7.4, 6.14, 0.0, -7.4, -16.99, -16.99, -16.99, -16.05, -14.53, -14.11, -12.65, -12.79, -11.9, -11.9, -10.99, -10.65, -10.3, -10.3, -8.85, -7.73, -6.45, -5.0, -3.53, -1.84, -0.0, -2.28, -5.75, -7.9, -7.59, -6.24, -5.77, -2.49, -0.0, -0.0, 1.39, 1.23, 2.06, 1.98, 3.53, 4.8, 3.82, 1.93, 2.02, 4.32, 6.7, 5.4, 2.97, 2.39, 2.19, 4.48, 6.44, 7.82, 12.3, 12.52, 12.07, 14.3, -10.19, -10.8, 0.0, 3.73, 6.02, 6.64, 9.17, 10.4, 13.41, 13.86, 0.0, -2.33, 0.0, 0.0, 0.0, 0.0, 0.0, 0.0, 0.0, 0.0, 2.15, 2.57, 4.38, 6.4, 8.05, 8.05, 7.4, 7.4, 6.63, 7.18, 7.6, 8.05, 8.56, 8.13, 8.74, 8.25, 8.25, 6.9, 6.72, 7.4, 7.4, 5.81, 6.52, 5.23, 3.24, -5.23, -15.69, -16.54, -16.54, -16.05, -15.78, -14.53, -14.42, -13.19, -12.79, -11.53, -11.16, -10.3, -9.96, -9.96, -8.85, -8.01, -6.94, -6.7, -5.4, -3.68, -1.58, -0.0, -0.0, -8.58, -8.37, -7.9, -6.5, -2.82, -0.0, -0.0, -0.0, -0.0, 1.14, 2.02, 3.53, 3.39, 3.39, 2.02, 2.28, 4.05, 7.24, 6.71, 3.53, 2.1, 3.04, 4.32, 7.54, 10.79, 12.3, 12.79, 12.96, 13.01, 0.0, -5.37, 0.0, 3.38, 5.96, 2.44, 2.54, 5.4, 11.62, -0.0, -0.0, 0.0, 0.0, 0.0, 0.0, 0.0, 0.0, 0.0, 0.0, 0.0, 0.0, 2.34, 4.18, 5.63, 8.31, 8.31, 7.4, 7.4, 7.4, 7.99, 7.6, 8.05, 8.56, 8.56, 9.12, 8.74, 7.6, 8.25, 6.9, 6.9, 6.9, 5.81, 5.81, 4.54, 0.0, -5.23, -13.76, -16.05, -16.54, -16.09, -15.78, -15.34, -14.42, -14.42, -13.19, -11.9, -11.53, -10.65, -10.3, -9.96, -8.85, -8.01, -6.94, -6.94, -5.4, -3.82, -3.19, -0.0, 1.58, -0.0, -8.8, -9.86, -7.81, -3.61, -1.22, -0.0, -0.0, -0.0, 1.07, 1.02, 2.1, 2.52, 1.84, 1.76, 3.61, 5.1, 6.98, 6.71, 6.71, 3.82, 3.68, 5.6, 10.47, 11.2, 11.95, 12.96, 14.3, 14.11, 6.0, 0.0, 0.0, 8.8, 3.9, 0.0, 0.0, 0.0, -12.07, -3.68, -0.0, 5.6, 13.41, 16.09, 4.95, 0.0, 0.0, 0.0, 0.0, 0.0, 0.0, 0.0, 2.05, 5.49, 6.8, 6.8, 7.04, 7.04, 7.4, 7.78, 8.43, 8.9, 8.05, 8.56, 8.56, 8.13, 7.6, 7.6, 7.6, 6.9, 6.9, 6.72, 5.23, 4.01, 2.34, -4.01, -13.76, -15.61, -16.09, -16.09, -15.65, -15.65, -15.05, -14.61, -13.19, -12.27, -11.9, -11.53, -10.65, -10.3, -9.96, -8.01, -6.94, -6.94, -5.4, -5.4, -3.19, -2.82, -0.0, -0.0, -0.0, -7.27, -7.21, -4.4, -0.0, -0.0, -0.0, 1.07, 1.02, 1.02, 2.1, 2.1, 1.98, 3.68, 3.77, 3.92, 5.0, 5.75, 6.21, 5.6, 6.7, 10.12, 11.53, 12.04, 11.62, 11.18, 13.32, 13.99, 6.2, -9.48, -10.12, -0.0, -0.0, 0.0, -2.33, -5.37, -11.87, -5.29, -0.0, 3.32, 7.19, 9.48, 13.01, 5.09, 0.0, 0.0, 0.0, 0.0, 0.0, 0.0, 0.0, 4.12, 5.81, 5.81, 7.74, 7.74, 7.4, 7.78, 7.99, 8.43, 8.9, 8.9, 8.56, 8.56, 8.13, 7.6, 7.6, 7.6, 6.31, 6.72, 5.23, 5.23, 2.34, 0.0, -8.93, -13.39, -13.99, -14.53, -15.43, -15.05, -15.2, -15.2, -14.18, -12.81, -11.9, -11.9, -10.65, -10.3, -9.96, -8.01, -8.01, -6.94, -5.4, -5.4, -5.4, -4.58, -4.08, -1.18, -0.0, -0.0, -5.0, -2.23, -0.0, 1.23, 1.23, 1.02, 1.02, 1.02, 2.1, 2.1, 2.13, 3.53, 4.08, 3.92, 4.23, 6.2, 6.7, 6.45, 10.04, 10.41, 11.99, 13.28, 11.18, 8.8, 9.6, 13.15, 11.38, -16.99, -12.92, -8.6, -0.0, -0.0, -3.59, -7.92, -16.81, -13.19, -3.14, -0.0, 5.2, 10.12, 10.65, 13.28, 10.75, 0.0, 3.07, 3.07, 0.0, -2.11, 0.0, 1.93, 5.51, 5.51, 7.74, 7.74, 8.11, 8.11, 8.51, 8.43, 8.9, 8.9, 9.17, 8.33, 8.56, 8.13, 7.6, 7.6, 7.6, 6.14, 6.54, 5.23, 4.01, 0.0, -7.2, -7.0, -11.06, -12.52, -14.11, -15.2, -14.75, -14.75, -14.19, -13.56, -12.27, -11.9, -10.99, -10.65, -9.48, -8.3, -8.01, -6.94, -6.94, -6.21, -5.4, -6.7, -5.77, -3.92, -2.33, -1.71, -1.71, -0.0, -0.0, 1.23, 1.18, 1.14, 1.14, 1.18, 2.33, 2.33, 2.23, 3.68, 3.39, 4.4, 5.54, 7.44, 7.73, 8.93, 10.04, 10.68, 10.4, 11.6, 11.45, 10.28, 9.39, 10.0, 13.02, -20.39, -18.79, -13.96, -2.72, 2.43, -0.0, -10.12, -16.83, -18.85, -13.99, -0.0, 6.2, 10.12, 11.64, 12.13, 14.11, 12.27, 8.18, 8.18, 0.0, -2.57, -2.0, 0.0, 3.69, 3.69, 7.53, 7.53, 8.11, 8.11, 8.51, 8.94, 8.94, 9.41, 8.67, 9.17, 8.33, 8.56, 8.13, 7.03, 7.03, 7.4, 5.98, 4.62, 3.59, 2.0, 0.0, -3.07, -7.0, -10.75, -14.42, -15.2, -12.27, -12.79, -15.34, -13.44, -12.42, -11.9, -10.99, -10.65, -9.8, -8.59, -8.3, -7.19, -5.6, -6.44, -6.21, -6.7, -7.44, -6.76, -5.92, -3.92, -1.39, -0.0, -0.0, -0.0, 1.18, 1.14, 1.18, 1.33, 1.28, 2.23, 2.42, 3.53, 3.39, 4.18, 7.02, 8.22, 8.93, 9.7, 10.09, 10.27, 9.75, 10.4, 11.2, 8.53, 5.29, 6.7, 12.39, 13.28, -26.98, -19.34, -10.12, -0.0, -0.0, -17.35, -15.91, -14.88, -16.48, -11.06, 4.95, 11.38, 13.02, 13.19, 14.16, 13.59, 11.53, 10.12, 4.66, 0.0, -2.0, 0.0, 1.78, 1.78, 7.53, 7.53, 7.89, 8.11, 8.51, 8.51, 8.94, 8.94, 9.41, 8.67, 9.17, 8.33, 8.56, 8.13, 7.03, 6.84, 6.14, 5.98, 4.62, 3.49, 0.0, 0.0, -2.98, -4.81, -15.2, -12.27, -10.43, -10.12, -10.82, -14.42, -12.33, -11.53, -10.65, -10.65, -9.8, -8.87, -8.59, -7.44, -5.8, -4.65, -4.65, -6.44, -6.7, -7.44, -6.5, -4.4, -3.07, -1.33, -0.0, -0.0, -0.0, -0.0, -0.0, -0.0, 1.28, 1.33, 2.6, 3.39, 4.6, 4.8, 6.44, 7.59, 9.3, 8.93, 10.0, 10.0, 10.18, 9.2, 10.4, 10.37, 8.53, 9.3, 11.03, 12.87, -15.62, -23.21, -18.08, -8.18, -8.31, -14.75, -14.79, -14.13, -13.96, -14.88, 16.99, 11.7, 14.39, 14.61, 14.3, 11.99, 7.19, 9.48, 9.8, 0.0, 0.0, 0.0, 0.0, 0.0, 7.53, 7.53, 7.89, 8.53, 8.51, 8.51, 8.94, 8.94, 9.41, 9.41, 8.67, 8.33, 8.33, 8.56, 7.92, 6.84, 6.66, 6.66, 5.5, 4.5, 1.94, 0.0, 0.0, -3.69, -13.19, -14.31, -13.28, -12.27, -13.19, -12.79, -11.99, -11.16, -10.3, -10.65, -8.87, -8.87, -8.87, -7.69, -6.0, -4.1, -2.54, -2.45, -6.44, -7.73, -6.76, -5.54, -3.07, -1.33, -0.0, -0.0, -0.0, -0.0, -0.0, 1.28, 1.28, 1.28, 2.49, 2.7, 3.61, 4.8, 7.82, 7.9, 8.94, 8.94, 8.82, 9.2, 9.2, 9.2, 10.4, 10.01, 10.41, 11.2, 12.14, 12.16, -0.0, -25.57, -21.9, -19.22, -17.1, -17.43, -16.12, -13.26, -13.26, -13.59, -15.19, 11.38, 15.61, 15.2, 13.75, 10.73, 5.6, 3.96, 8.85, 4.24, 0.0, 0.0, 0.0, 0.0, 8.16, 8.16, 8.53, 8.53, 8.93, 9.17, 9.17, 9.61, 8.94, 9.41, 8.67, 8.67, 8.33, 8.56, 8.33, 8.33, 7.2, 6.66, 6.66, 5.98, 3.39, 1.89, 0.0, 0.0, -10.43, -14.75, -14.3, -14.03, -13.57, -13.57, -12.79, -11.53, -11.16, -10.3, -8.59, -8.87, -7.69, -7.69, -6.0, -4.24, -2.2, -0.0, -2.45, -8.53, -7.85, -6.76, -3.07, -1.58, -0.0, -0.0, -0.0, -0.0, -0.0, 1.28, 1.33, 2.82, 2.7, 3.87, 3.87, 5.98, 6.4, 8.22, 8.58, 10.0, 10.0, 10.0, 9.2, 9.58, 9.58, 10.35, 11.2, 12.39, 12.79, 11.06, -0.0, -20.82, -20.56, -19.67, -20.56, -19.22, -16.54, -14.57, -11.06, -10.75, -11.06, 0.0, 13.99, 12.65, 9.48, 8.85, 5.6, 0.0, 0.0, 3.96, 0.0, 0.0, 0.0, 0.0, 7.93, 7.93, 8.53, 8.53, 8.93, 8.93, 9.17, 9.61, 9.61, 8.94, 9.41, 8.67, 8.67, 8.67, 9.17, 8.33, 8.11, 7.2, 6.66, 6.66, 4.5, 3.3, 2.15, 0.0, -4.66, -12.27, -14.3, -14.3, -14.03, -13.57, -12.79, -11.9, -11.53, -9.48, -9.48, -8.59, -7.44, -6.65, -5.28, -3.68, -1.9, -0.0, -0.0, -7.51, -8.53, -7.02, -4.58, -1.64, -0.0, -0.0, -0.0, -0.0, 1.52, 1.52, 2.82, 2.7, 2.7, 3.87, 3.87, 5.98, 6.69, 6.32, 9.2, 9.45, 9.2, 10.38, 9.55, 10.18, 10.0, 9.58, 11.6, 11.12, 15.34, 15.19, -0.0, -14.51, -17.43, -19.67, -21.46, -21.61, -18.68, -13.23, -11.44, -9.17, -8.05, 0.0, 6.67, 7.82, 7.82, 7.78, 5.8, 0.0, 0.0, 0.0, 0.0, 0.0, 0.0, 0.0, 7.93, 7.93, 8.53, 8.53, 8.93, 8.93, 9.17, 9.17, 9.61, 9.61, 8.94, 9.41, 9.41, 8.67, 8.67, 8.67, 8.11, 8.11, 7.2, 6.66, 6.47, 4.37, 3.69, 0.0, 0.0, -8.18, -13.57, -14.3, -14.3, -13.28, -12.27, -12.27, -11.17, -9.8, -9.8, -8.59, -7.44, -7.44, -5.28, -3.68, -1.9, -0.0, 1.55, -2.54, -7.9, -7.73, -4.75, -1.64, -0.0, -0.0, -0.0, 1.52, 1.52, 1.52, 2.7, 2.7, 3.87, 3.7, 4.88, 5.72, 6.4, 6.64, 8.82, 9.04, 9.86, 10.96, 9.64, 9.55, 9.96, 9.96, 9.97, 12.3, 15.34, 16.79, -17.48, -12.64, -11.09, -16.66, -22.35, -21.92, -17.59, -12.33, -10.75, -9.17, -4.48, 0.0, 4.24, 9.17, 10.12, 9.17, 7.78, 0.0, 0.0, 0.0, 0.0, 0.0, 2.2, 0.0, 7.93, 7.93, 8.29, 8.53, 8.93, 9.52, 8.93, 8.93, 9.61, 9.61, 9.61, 8.7, 9.16, 9.16, 8.67, 8.43, 8.43, 7.63, 8.11, 7.2, 7.49, 7.0, 4.81, 3.58, 0.0, -3.47, -7.93, -13.57, -14.3, -13.88, -13.28, -12.27, -11.17, -10.12, -9.8, -8.87, -7.44, -7.44, -5.28, -3.68, -3.68, -1.61, -0.0, -0.0, -3.53, -6.7, -4.75, -1.71, -0.0, -0.0, -0.0, 1.52, 1.52, 2.82, 2.7, 2.7, 3.7, 3.7, 4.66, 5.72, 6.4, 6.64, 8.38, 8.15, 9.04, 10.52, 10.41, 9.2, 9.6, 8.94, 10.38, 12.58, 14.47, 16.54, -23.42, -21.92, -12.65, -14.11, -19.67, -18.68, -12.01, -9.12, -9.12, -8.85, -5.15, 0.0, 5.15, 9.8, 11.5, 11.5, 10.73, 3.25, -2.63, -2.63, 0.0, 0.0, 2.2, 2.2, 7.93, 7.93, 8.29, 8.29, 9.12, 9.52, 9.52, 9.52, 9.35, 9.35, 9.35, 9.35, 8.94, 9.41, 9.41, 9.41, 9.41, 8.43, 8.43, 7.88, 7.88, 7.28, 6.8, 4.66, 3.58, 0.0, -3.47, -10.12, -14.3, -14.3, -12.79, -11.44, -10.12, -10.12, -8.94, -8.94, -7.69, -7.44, -6.0, -4.24, -3.68, -3.56, -1.61, -0.0, -0.0, -1.64, -3.32, -1.71, -0.0, -0.0, 1.58, 1.52, 1.52, 2.82, 2.7, 3.87, 3.7, 4.96, 5.21, 5.46, 5.72, 6.64, 6.08, 8.43, 9.55, 9.55, 8.43, 8.23, 8.58, 8.94, 10.38, 11.46, 13.59, 14.84, -0.0, -26.82, -23.9, -15.87, -14.3, -12.39, -9.48, -9.48, -9.48, -8.05, -2.72, 0.0, 5.31, 10.43, 12.27, 11.88, 12.39, 7.69, 0.0, -3.36, 0.0, 0.0, 2.13, 2.2, 8.5, 8.5, 8.86, 8.86, 8.86, 9.25, 9.52, 9.52, 9.52, 9.94, 9.35, 9.61, 9.61, 8.94, 9.41, 9.41, 9.41, 9.16, 8.43, 8.2, 7.66, 7.66, 7.06, 6.6, 4.66, 3.93, 0.0, 0.0, -10.12, -14.3, -12.79, -11.53, -10.12, -8.58, -7.36, -7.36, -7.13, -6.2, -6.2, -4.38, -4.24, -4.1, -1.83, -1.77, -0.0, -0.0, -0.0, -0.0, -0.0, -0.0, 1.52, 1.45, 1.45, 2.82, 2.7, 3.7, 3.7, 4.96, 4.96, 6.01, 5.46, 6.11, 7.59, 6.95, 6.95, 7.27, 7.68, 8.93, 8.23, 10.38, 11.03, 11.46, 12.96, 13.44, 13.02, -18.39, -30.4, -27.27, -17.88, -13.15, -10.43, -10.43, -9.12, -7.2, -3.16, 0.0, 4.66, 9.22, 10.43, 11.44, 12.79, 10.12, 0.0, -3.36, 0.0, 0.0, 2.13, 2.13, 8.5, 8.5, 8.86, 8.86, 8.86, 9.25, 9.52, 9.52, 9.52, 9.94, 10.22, 9.61, 9.61, 9.61, 9.41, 9.41, 9.41, 9.16, 9.16, 8.91, 8.43, 8.43, 7.92, 8.46, 7.16, 6.6, 4.52, 3.47, 0.0, -14.3, -14.3, -6.4, -7.93, -6.4, -6.2, -5.31, -5.31, -7.36, -4.52, -4.38, -4.38, -2.2, -2.13, -2.13, -1.83, -0.0, -0.0, -0.0, -0.0, 1.45, 1.45, 1.39, 1.39, 2.7, 2.58, 3.7, 4.0, 4.96, 4.96, 4.96, 6.01, 5.2, 5.53, 6.95, 6.95, 6.95, 8.23, 7.27, 8.23, 10.6, 11.51, 11.18, 12.96, 11.87, 11.8, 5.09, -18.23, -31.74, -27.62, -19.19, -15.62, -12.64, -12.96, -8.2, 0.0, 3.24, 4.66, 7.36, 10.43, 11.44, 12.79, 11.9, 0.0, -3.25, 0.0, 2.13, 2.13, 2.13, 8.26, 8.26, 8.86, 8.86, 8.86, 9.25, 9.52, 10.05, 10.05, 9.94, 10.22, 10.22, 9.61, 9.61, 9.61, 10.08, 9.81, 9.81, 9.81, 8.65, 8.65, 8.18, 8.18, 8.68, 8.46, 8.18, 7.1, 6.4, 6.4, 0.0, 14.3, -0.0, -0.0, -0.0, -3.36, -3.47, -2.81, -5.31, -5.31, -2.81, -2.72, -2.63, -0.0, -0.0, -0.0, -0.0, -0.0, -0.0, -0.0, 1.45, 1.39, 1.39, 2.58, 2.97, 2.97, 4.0, 4.0, 4.71, 4.71, 4.96, 5.72, 5.72, 6.32, 7.59, 6.95, 6.95, 8.23, 8.58, 8.82, 10.6, 11.06, 10.73, 11.51, 12.3, 10.47, 9.49, -0.0, -23.69, -28.64, -24.39, -20.09, -17.07, -17.07, -9.8, 0.0, 6.31, 8.05, 8.85, 8.58, 10.12, 11.53, 13.15, 0.0, 0.0, 3.14, 2.54, 2.54, 2.54, 8.26, 8.26, 8.61, 8.86, 8.86, 9.25, 9.77, 9.77, 10.05, 10.47, 9.94, 9.94, 10.22, 9.35, 9.35, 9.35, 9.81, 9.54, 9.54, 9.27, 8.4, 8.85, 8.85, 9.34, 8.68, 8.2, 8.58, 8.31, 8.94, 7.93, 12.79, 14.3, 10.12, -0.0, -0.0, -0.0, -0.0, -2.81, -2.81, -2.81, -2.72, -0.0, -0.0, -0.0, -0.0, -0.0, -0.0, -0.0, 1.64, 1.84, 1.69, 1.62, 3.11, 2.97, 2.97, 3.8, 3.8, 4.46, 4.46, 4.71, 5.44, 5.72, 6.32, 6.01, 8.38, 8.43, 9.13, 8.63, 9.89, 10.62, 11.62, 10.18, 10.6, 11.2, 10.47, 11.17, 11.38, -0.0, -20.39, -21.1, -20.23, -17.17, -11.6, -4.65, 0.0, 3.51, 10.19, 12.87, 12.16, 9.8, 12.79, 11.2, 0.0, 0.0, 3.14, 4.65, 4.65, 4.65, 8.26, 8.26, 8.61, 8.61, 8.86, 8.99, 9.77, 9.77, 9.77, 10.47, 10.47, 9.94, 9.94, 9.94, 9.35, 9.09, 9.54, 9.54, 9.27, 9.27, 9.27, 9.44, 9.44, 8.85, 9.06, 9.57, 9.5, 10.12, 10.99, 11.17, 12.79, 14.3, 14.3, 12.79, 6.4, 4.52, -0.0, -0.0, -0.0, -0.0, -0.0, -0.0, -0.0, -0.0, -0.0, -0.0, -0.0, 1.71, 1.91, 1.91, 1.84, 3.39, 3.25, 3.11, 4.4, 4.0, 4.0, 4.71, 4.46, 5.15, 5.44, 5.44, 6.87, 6.64, 7.15, 9.2, 9.33, 8.6, 9.46, 10.2, 10.18, 10.18, 10.4, 11.2, 11.99, 12.39, 13.59, 14.39, -12.64, -15.38, -15.29, -15.87, -10.63, -4.47, 0.0, 0.0, 11.0, 13.95, 13.99, 13.19, 9.48, 10.8, 8.85, 0.0, 3.96, 5.4, 5.4, 5.4, 8.61, 8.61, 8.61, 8.61, 8.61, 8.61, 9.49, 9.77, 9.77, 10.18, 10.18, 10.18, 9.67, 9.67, 9.67, 9.09, 9.54, 9.27, 9.27, 9.82, 10.27, 9.44, 9.16, 9.16, 9.62, 10.12, 10.12, 10.12, 10.86, 11.9, 12.27, 14.03, 14.3, 13.57, 11.9, 7.93, 4.52, 3.47, -0.0, -0.0, -0.0, -0.0, -0.0, -0.0, -0.0, -0.0, -0.0, 1.71, 3.68, 3.68, 3.53, 3.39, 3.39, 3.25, 4.4, 4.4, 4.0, 4.71, 4.46, 5.15, 5.69, 6.01, 6.52, 6.32, 7.15, 8.8, 8.72, 8.72, 9.13, 8.8, 9.75, 10.0, 10.4, 11.87, 12.3, 11.99, 13.15, 13.59, 16.09, -5.23, -11.27, -13.34, -14.95, -9.8, 0.0, 0.0, 3.51, 9.39, 11.8, 11.6, 11.2, 8.85, 5.4, 3.82, 2.93, 5.4, 5.4, 5.4, 8.61, 8.61, 8.61, 8.36, 8.61, 8.61, 9.49, 9.49, 9.49, 10.18, 10.18, 10.18, 9.67, 9.67, 9.67, 9.39, 9.39, 9.82, 9.82, 9.82, 9.97, 9.97, 9.67, 10.12, 10.12, 10.12, 10.63, 10.69, 11.29, 12.13, 13.15, 13.57, 14.3, 14.3, 13.88, 11.9, 7.93, 7.93, 3.36, 3.36, 3.25, 3.25, 2.54, 2.13, -0.0, -0.0, -0.0, 1.98, 3.68, 3.68, 3.53, 3.53, 3.39, 4.8, 4.6, 4.4, 5.86, 5.59, 5.31, 5.69, 5.37, 6.18, 6.52, 6.87, 6.79, 8.03, 8.03, 6.95, 8.43, 9.04, 9.89, 10.32, 11.18, 11.61, 11.87, 11.99, 12.39, 13.15, 13.99, 13.99, -4.01, -12.57, -16.48, -12.59, 0.0, 0.0, 3.33, 5.8, 9.17, 8.85, 8.85, 8.53, 5.2, 3.53, 3.53, 4.8, 4.8, 4.8, 8.36, 8.36, 8.36, 8.36, 8.36, 8.36, 8.72, 9.49, 9.49, 9.49, 9.89, 9.89, 9.89, 9.39, 9.39, 9.39, 9.39, 9.82, 9.82, 9.53, 9.97, 9.67, 10.12, 10.12, 10.12, 10.58, 11.07, 11.17, 11.72, 12.5, 12.79, 13.81, 14.6, 14.75, 14.3, 13.88, 12.79, 9.8, 7.69, 6.0, 6.0, 5.8, 5.8, 4.81, 2.06, -0.0, -0.0, 1.98, 3.68, 5.2, 3.53, 3.53, 3.53, 5.52, 5.29, 6.42, 6.14, 5.86, 5.31, 5.69, 5.69, 5.84, 6.18, 6.52, 6.01, 6.87, 6.95, 7.47, 8.0, 9.04, 9.46, 10.28, 11.18, 11.95, 12.04, 11.6, 11.16, 11.16, 13.15, 14.75, 11.06, -6.14, -11.16, -11.2, -8.76, 0.0, 6.0, 6.17, 5.2, 6.94, 8.53, 9.67, 7.59, 4.8, 3.25, 4.4, 4.4, 4.4, 8.36, 8.36, 8.36, 8.36, 8.36, 8.72, 8.72, 9.22, 9.22, 9.49, 9.89, 9.89, 9.89, 9.89, 9.89, 9.67, 9.82, 9.82, 9.53, 9.53, 9.67, 10.12, 10.12, 10.12, 10.58, 10.58, 11.07, 11.57, 12.07, 12.27, 13.48, 13.99, 14.31, 14.6, 14.3, 14.3, 13.88, 12.39, 9.8, 9.48, 9.48, 7.19, 5.8, 4.65, 3.96, 2.06, 1.98, 1.98, 3.68, 5.98, 5.98, 5.75, 5.75, 5.52, 6.7, 6.42, 6.14, 5.86, 6.32, 6.01, 5.69, 5.84, 5.84, 6.18, 6.18, 6.32, 7.21, 7.81, 8.37, 8.93, 9.45, 9.74, 9.83, 11.18, 11.95, 11.2, 10.79, 10.79, 12.74, 14.18, 14.75, 4.66, -5.81, -9.66, -12.19, 0.0, 6.8, 6.44, 4.8, 2.71, 3.68, 8.22, 7.9, 7.59, 5.7, 5.46, 5.46, 5.46, 8.36, 8.1, 8.1, 8.1, 8.1, 8.46, 8.46, 9.22, 9.22, 9.66, 10.04, 9.6, 9.89, 10.18, 10.18, 9.89, 9.82, 9.53, 9.53, 9.24, 9.67, 9.67, 10.54, 10.99, 10.99, 11.44, 11.07, 11.57, 12.45, 12.95, 13.19, 13.48, 14.4, 14.64, 14.3, 14.3, 14.3, 13.44, 12.39, 10.73, 9.48, 9.17, 7.78, 6.44, 4.65, 1.98, 1.98, 3.82, 5.98, 5.98, 5.98, 5.98, 5.75, 6.7, 6.7, 6.42, 6.14, 6.64, 6.32, 6.98, 6.63, 6.7, 6.32, 5.84, 5.37, 5.49, 7.21, 6.64, 6.95, 7.27, 8.73, 9.32, 9.75, 9.13, 11.06, 10.4, 10.41, 11.92, 12.89, 13.72, 14.3, 14.3, -10.12, -15.77, -17.03, -4.3, 4.23, 5.4, 7.9, 6.2, 3.53, 3.53, 8.22, 6.2, 5.95, 5.46, 5.46, 5.46, 8.1, 8.1, 8.1, 8.1, 8.1, 8.46, 8.46, 8.94, 8.94, 9.66, 10.34, 10.34, 10.65, 9.89, 9.89, 9.89, 10.01, 9.53, 9.24, 9.24, 9.67, 10.12, 10.54, 10.99, 10.99, 11.44, 11.57, 11.93, 12.45, 12.95, 13.19, 13.7, 13.99, 14.31, 14.19, 14.3, 13.86, 13.59, 12.45, 11.99, 11.6, 10.37, 10.01, 7.51, 4.65, 2.37, 2.37, 4.48, 6.21, 5.98, 5.98, 5.98, 5.98, 6.98, 6.7, 6.42, 6.95, 6.64, 6.98, 6.98, 6.63, 6.28, 6.7, 6.32, 6.32, 6.32, 7.33, 6.64, 7.56, 7.64, 8.0, 7.9, 8.24, 6.42, 8.23, 8.73, 10.8, 12.04, 12.83, 12.83, 13.41, 13.86, -10.43, -25.87, -19.6, -4.56, 0.0, 3.58, 8.53, 6.7, 3.68, 4.1, 6.45, 8.22, 7.59, 7.27, 7.27, 7.27, 8.31, 8.31, 7.85, 7.85, 8.46, 8.46, 8.46, 8.94, 9.22, 9.95, 10.34, 10.34, 10.34, 10.34, 9.89, 10.01, 10.01, 10.01, 9.24, 9.67, 10.12, 10.12, 10.54, 10.99, 10.99, 11.8, 11.93, 11.93, 12.45, 12.95, 13.19, 13.7, 13.99, 13.96, 13.88, 14.16, 13.86, 13.86, 13.15, 12.45, 11.6, 11.6, 10.01, 8.85, 6.44, 2.37, 2.37, 4.48, 6.21, 7.54, 6.21, 6.21, 7.26, 6.98, 7.59, 7.27, 7.68, 7.33, 6.98, 7.44, 7.07, 6.7, 6.32, 6.32, 6.32, 6.32, 5.93, 6.32, 8.93, 8.93, 8.93, 8.93, 8.37, 7.27, 7.9, 7.59, 10.4, 11.61, 12.04, 12.04, 12.46, 12.87, -18.33, -25.02, -20.94, -8.14, 0.0, 3.25, 5.4, 6.45, 6.2, 6.2, 7.9, 9.3, 7.59, 8.55, 8.55, 8.55, 8.31, 8.31, 8.31, 7.85, 8.2, 8.46, 8.94, 9.22, 9.22, 9.22, 10.04, 10.34, 10.04, 10.04, 10.43, 10.01, 10.01, 10.01, 10.01, 9.67, 10.43, 10.43, 10.87, 11.33, 11.8, 11.8, 12.29, 12.29, 12.45, 12.95, 13.43, 13.7, 13.07, 13.57, 13.88, 13.75, 13.86, 13.86, 13.23, 13.23, 12.71, 12.04, 10.73, 8.85, 6.44, 4.48, 5.4, 5.4, 7.24, 8.53, 7.54, 7.54, 8.22, 8.73, 8.38, 8.03, 7.68, 7.33, 6.87, 7.44, 7.07, 6.7, 6.32, 6.8, 7.2, 7.2, 7.2, 7.2, 9.2, 9.32, 9.6, 9.6, 9.6, 9.2, 8.54, 9.04, 9.6, 10.4, 11.2, 10.41, 10.41, 10.47, -18.78, -21.59, -21.29, -9.2, 0.0, 0.0, 2.6, 6.2, 6.2, 6.45, 8.22, 9.3, 9.3, 8.18, 8.18, 8.18, 8.31, 8.31, 8.31, 8.66, 8.94, 8.94, 8.94, 8.94, 9.22, 9.22, 10.04, 10.04, 10.04, 10.04, 10.43, 10.01, 10.01, 10.01, 10.01, 10.43, 10.43, 10.43, 10.87, 11.68, 12.16, 12.16, 12.65, 12.45, 12.45, 12.95, 13.43, 12.79, 13.28, 13.57, 13.96, 13.44, 13.75, 13.41, 13.41, 12.79, 12.79, 12.79, 11.62, 10.01, 8.85, 6.21, 7.24, 7.24, 7.24, 8.53, 8.53, 8.53, 9.08, 8.73, 8.38, 8.03, 7.68, 7.33, 7.81, 6.87, 7.37, 6.99, 6.7, 7.2, 7.2, 7.2, 7.6, 8.06, 7.81, 10.05, 10.05, 10.05, 9.6, 9.2, 9.63, 9.97, 10.18, 10.75, 10.4, 9.27, 8.01, 8.94, -0.0, -19.51, -22.34, -14.75, -4.34, 0.0, 0.0, 3.53, 6.45, 6.45, 8.22, 9.67, 9.3, 8.55, 8.55, 8.55, 8.31, 8.31, 8.31, 8.66, 8.66, 8.66, 8.66, 8.94, 8.94, 8.94, 9.73, 9.73, 10.04, 10.43, 10.43, 10.43, 10.01, 10.31, 10.31, 10.75, 10.75, 11.2, 11.2, 11.68, 12.16, 12.16, 12.65, 12.45, 12.45, 12.95, 13.02, 12.79, 13.28, 13.7, 13.15, 13.53, 13.75, 13.41, 13.41, 12.96, 12.96, 12.79, 11.87, 10.01, 8.85, 8.85, 7.24, 7.24, 7.24, 8.53, 8.53, 9.08, 8.73, 8.73, 8.38, 8.03, 7.68, 7.68, 7.81, 7.44, 7.76, 7.37, 6.99, 7.4, 7.4, 7.81, 7.81, 8.17, 8.24, 9.97, 9.63, 9.32, 8.93, 8.54, 9.04, 9.04, 9.46, 9.89, 9.6, 8.22, 8.3, 9.8, 5.81, -19.22, -23.19, -21.64, -11.53, -4.12, 0.0, 2.71, 6.45, 6.45, 6.7, 9.67, 9.3, 9.3, 9.3, 9.3, 8.31, 8.31, 8.31, 8.66, 8.66, 8.66, 8.66, 8.66, 8.66, 8.94, 9.73, 10.04, 10.04, 10.43, 10.75, 10.75, 10.75, 10.31, 10.75, 10.75, 10.75, 11.2, 11.2, 11.68, 11.8, 12.16, 12.27, 12.74, 12.07, 12.56, 13.02, 13.02, 13.28, 13.27, 13.27, 13.53, 13.33, 13.41, 13.41, 12.96, 12.96, 12.96, 12.35, 11.62, 10.01, 10.01, 8.53, 8.53, 8.53, 9.66, 9.66, 9.08, 8.73, 9.58, 9.2, 8.82, 8.8, 8.43, 7.81, 7.44, 7.76, 7.37, 7.2, 7.81, 7.81, 7.81, 8.6, 8.6, 8.67, 9.89, 8.93, 8.37, 8.0, 8.15, 8.15, 8.63, 7.81, 7.33, 8.82, 8.22, 9.62, 10.91, 7.59, -14.51, -23.37, -23.77, -12.61, -4.45, 0.0, 0.0, 4.1, 7.19, 9.17, 10.79, 10.41, 8.85, 8.85, 8.85, 8.05, 8.05, 8.38, 8.66, 8.66, 8.66, 8.66, 8.66, 8.66, 8.94, 9.73, 10.04, 10.04, 10.75, 10.75, 10.75, 10.75, 10.75, 10.75, 10.75, 10.75, 10.87, 10.75, 11.25, 11.8, 12.27, 12.27, 12.36, 12.36, 12.56, 13.02, 13.02, 13.44, 13.27, 13.27, 13.15, 13.33, 13.41, 12.96, 12.96, 12.96, 12.96, 12.83, 11.62, 11.2, 11.2, 9.66, 9.66, 9.66, 10.35, 9.3, 9.58, 10.0, 9.6, 9.6, 9.2, 9.2, 8.8, 8.4, 8.0, 7.6, 7.81, 7.95, 7.95, 7.95, 8.17, 8.6, 8.6, 8.85, 8.67, 8.91, 10.46, 9.2, 8.15, 8.15, 8.15, 7.81, 8.18, 8.55, 9.67, 10.87, 11.64, 9.22, -9.17, -22.49, -24.79, -17.88, -8.8, 0.0, 0.0, 5.09, 8.18, 9.48, 11.16, 10.79, 9.17, 9.17, 9.17, 8.05, 8.05, 8.38, 8.38, 8.38, 8.66, 8.66, 8.66, 8.66, 8.94, 9.73, 10.04, 10.04, 10.34, 10.75, 10.75, 10.75, 11.17, 10.75, 10.75, 10.87, 10.87, 10.75, 11.25, 11.42, 12.27, 11.9, 12.36, 12.36, 12.79, 13.02, 13.02, 13.02, 13.37, 13.27, 13.15, 13.09, 12.86, 12.86, 12.96, 12.96, 12.96, 12.83, 12.04, 11.62, 11.2, 9.66, 10.8, 11.21, 10.35, 9.3, 9.58, 10.0, 9.6, 9.2, 9.2, 8.55, 8.18, 7.81, 8.0, 8.0, 7.81, 7.95, 7.95, 8.24, 8.24, 8.67, 8.87, 8.85, 8.85, 9.32, 11.09, 9.45, 9.6, 8.63, 9.04, 9.04, 8.54, 8.93, 9.86, 11.09, 11.26, 10.12, -3.79, -21.01, -24.79, -15.49, -9.2, -4.55, 0.0, 0.0, 4.01, 8.18, 10.79, 10.79, 9.17, 9.17, 9.17, 8.05, 8.05, 8.38, 8.38, 8.38, 8.38, 8.38, 8.66, 8.66, 8.94, 9.73, 10.04, 10.04, 10.43, 10.43, 10.43, 10.84, 10.84, 10.43, 10.87, 10.87, 10.87, 11.33, 10.92, 11.42, 11.57, 11.57, 12.36, 12.36, 12.56, 12.56, 12.62, 13.02, 13.02, 12.85, 12.85, 13.09, 12.66, 12.86, 12.86, 12.86, 12.96, 12.96, 12.27, 11.62, 11.62, 10.8, 10.8, 11.84, 10.79, 10.79, 10.38, 10.6, 9.86, 9.86, 8.55, 8.55, 8.18, 7.81, 8.4, 8.0, 8.17, 8.17, 8.24, 8.24, 8.24, 8.87, 8.87, 8.85, 8.94, 9.39, 9.33, 9.16, 11.46, 9.11, 9.54, 9.54, 9.04, 9.45, 9.86, 10.68, 11.26, 10.65, -0.0, -18.21, -23.24, -17.07, -12.61, -9.2, 0.0, 0.0, 0.0, 0.0, 4.52, 9.17, 9.17, 9.17, 9.17, 8.05, 8.05, 8.38, 8.38, 8.38, 8.38, 8.38, 8.66, 8.66, 8.94, 9.73, 10.04, 10.04, 10.43, 10.43, 10.43, 10.84, 10.84, 10.43, 10.87, 10.87, 10.87, 11.33, 10.92, 11.42, 11.57, 11.57, 12.36, 12.36, 12.56, 12.56, 12.62, 13.02, 13.02, 12.85, 12.85, 13.09, 12.66, 12.86, 12.86, 12.86, 12.96, 12.96, 12.27, 11.62, 11.62, 10.8, 10.8, 11.84, 10.79, 10.79, 10.38, 10.6, 9.86, 9.86, 8.55, 8.55, 8.18, 7.81, 8.4, 8.0, 8.17, 8.17, 8.24, 8.24, 8.24, 8.87, 8.87, 8.85, 8.94, 9.39, 9.33, 9.16, 11.46, 9.11, 9.54, 9.46, 9.04, 9.45, 9.86, 10.68, 10.87, 10.3, 5.31, -8.93, -20.12, -20.32, -14.86, -12.61, -5.1, -4.88, -3.77, 0.0, 0.0, 0.0, 4.1, 4.1, 4.1]}, {"header": {"dx": 0.06612293990616946, "dy": 0.0552356325346848, "nx": 98, "ny": 59, "la1": 35.046912555036876, "la2": 31.78801023549047, "lo1": -121.43107172385933, "lo2": -114.95102361305473, "refTime": "2026041720", "parameterCategory": 1, "parameterNumber": 3}, "data": [-14.47, -12.96, -11.0, -10.73, -8.47, -8.03, -7.82, -6.35, -6.17, -4.66, -3.1, -2.91, 0.0, 0.0, 1.2, 2.52, 5.77, 6.2, 6.97, 7.51, 5.8, 4.81, 4.58, 1.58, 0.0, -8.22, -10.8, -6.94, -8.53, -8.53, -11.2, -11.6, -12.14, -10.84, -10.28, -9.83, -9.39, -9.39, -9.21, -9.2, -9.83, -0.0, 2.82, 3.04, 3.07, 2.59, -0.0, -0.0, -0.0, -2.28, -5.31, -5.48, -5.64, -5.81, -7.0, -9.39, -11.06, -8.68, -11.06, -11.06, -7.0, -11.06, -14.42, -13.59, -14.11, -14.84, -15.27, -15.47, -15.47, -14.79, -15.47, -15.04, -15.04, -15.49, -15.49, -15.65, -14.75, -14.22, -14.66, -14.68, -14.03, -12.45, -11.6, -10.41, -8.53, -6.45, -5.4, -3.92, -2.71, -2.71, -4.1, -3.47, 0.0, 0.0, -13.19, -14.03, -12.72, -12.58, -14.47, -13.79, -12.96, -10.73, -9.24, -8.25, -7.82, -6.35, -4.81, -3.2, -1.72, 0.0, 0.0, 1.38, 1.83, 3.82, 4.23, 6.21, 7.24, 6.45, 6.9, 5.8, 4.81, 2.54, 1.76, -2.71, -11.62, -10.04, -10.04, -11.2, -13.28, -12.87, -11.87, -9.33, -7.63, -8.0, -6.28, -5.36, -2.97, -0.0, 3.04, 3.25, 2.54, 4.18, 2.38, -0.0, -0.0, -0.0, -2.28, -2.43, -5.48, -2.98, -2.98, -5.64, -6.8, -8.68, -8.68, -8.43, -7.0, -7.0, -7.0, -10.75, -12.65, -13.59, -14.11, -13.99, -14.39, -14.39, -14.79, -14.79, -15.2, -15.47, -15.87, -14.99, -15.05, -14.75, -14.75, -14.22, -14.66, -14.68, -14.03, -12.45, -11.6, -10.41, -8.53, -6.45, -5.4, -3.92, -2.71, -2.71, -4.1, -3.47, 0.0, 0.0, -13.19, -14.03, -12.72, -12.58, -14.47, -13.79, -12.96, -10.73, -10.73, -9.24, -8.03, -6.54, -5.34, -3.58, -2.02, 0.0, 1.72, 3.14, 3.68, 2.82, 4.08, 4.58, 6.7, 6.67, 6.45, 4.65, 5.6, 6.0, 6.2, 0.0, -10.18, -10.73, -10.96, -11.46, -14.18, -14.61, -13.15, -10.38, -7.37, -5.63, -1.11, 1.11, 2.7, 4.58, 5.6, 5.18, 4.91, 2.91, 3.16, -0.0, -0.0, -0.0, -2.43, -2.5, -2.5, -2.98, -2.98, -6.8, -8.18, -8.43, -8.43, -4.95, -4.95, -8.68, -8.68, -12.65, -13.59, -14.11, -13.03, -13.42, -13.99, -13.99, -13.99, -13.39, -14.39, -15.27, -15.43, -14.99, -14.75, -14.75, -15.2, -15.2, -14.23, -14.68, -14.07, -12.85, -12.04, -10.55, -9.17, -7.65, -5.92, -3.92, -3.53, -4.39, -4.3, -2.72, 5.09, 10.75, -10.43, -12.39, -12.3, -12.04, -15.25, -13.79, -12.96, -11.64, -10.73, -9.24, -9.0, -7.4, -5.49, -2.09, -2.02, 0.0, 1.77, 3.96, 3.82, 4.08, 4.08, 4.75, 6.45, 6.7, 6.2, 5.0, 5.0, 3.07, 4.75, 0.0, -7.27, -9.83, -9.83, -11.18, -12.07, -13.86, -15.65, -15.65, -11.87, -0.0, 2.02, 3.98, 4.93, 5.46, 6.52, 5.28, 5.4, 2.47, -0.0, -0.0, -0.0, -0.0, -2.43, -2.43, -2.43, -5.64, -6.6, -6.6, -8.18, -8.18, -8.43, -8.68, -8.68, -8.68, -10.75, -13.59, -13.7, -13.7, -12.65, -11.87, -12.22, -12.02, -13.39, -14.88, -15.19, -14.84, -15.43, -14.75, -14.3, -13.86, -14.75, -15.2, -15.12, -13.79, -13.23, -12.94, -12.04, -10.79, -9.77, -9.86, -8.53, -6.76, -5.92, -7.0, -7.04, -5.37, 0.0, 10.43, 0.0, -11.16, -11.6, -11.5, -15.25, -13.79, -12.96, -12.64, -11.64, -11.64, -10.13, -8.43, -6.16, -2.15, -2.09, -1.96, 0.0, 3.14, 2.62, 3.82, 5.2, 6.7, 6.45, 7.54, 7.78, 5.6, 5.2, 5.2, 2.95, 2.93, -5.6, -12.07, -11.18, -9.55, -5.95, 0.0, 2.28, 3.04, 10.12, 12.79, 8.43, 2.72, 2.28, 2.47, -0.0, -0.0, -0.0, -0.0, -0.0, -0.0, -0.0, -2.35, -2.43, -4.81, -5.48, -8.58, -8.58, -8.85, -6.6, -6.6, -8.43, -8.68, -7.0, -10.75, -11.8, -12.27, -13.28, -12.65, -11.52, -12.92, -14.13, -13.76, -15.25, -18.49, -18.08, -17.19, -18.14, -17.43, -15.49, -12.58, -13.75, -14.3, -13.86, -13.19, -12.79, -12.51, -11.64, -10.7, -10.21, -10.62, -10.24, -9.46, -11.06, -11.45, -9.67, -8.05, 0.0, 9.48, 0.0, -11.16, -11.12, -11.5, -15.25, -14.66, -13.92, -13.58, -12.64, -11.45, -11.16, -9.42, -7.2, -4.95, -2.15, -2.02, 0.0, 1.61, 1.55, 4.24, 6.7, 7.54, 9.42, 7.54, 7.26, 7.54, 8.05, 8.05, 6.94, 6.7, 8.53, 12.07, 0.0, 0.0, 6.95, 8.23, 8.23, 10.41, 11.71, 8.31, 2.63, -0.0, -0.0, -2.35, -2.06, -2.81, -3.81, -2.02, -2.02, -2.09, -4.66, -4.52, -7.36, -7.36, -7.13, -9.8, -8.31, -8.58, -6.6, -6.6, -6.6, -6.6, -9.12, -8.85, -11.09, -11.5, -13.19, -13.59, -13.39, -14.13, -14.51, -14.36, -15.91, -18.84, -20.51, -19.52, -18.19, -18.78, -18.33, -16.05, -13.01, -12.86, -12.96, -12.9, -11.64, -11.21, -11.21, -11.21, -11.13, -10.79, -12.87, -15.19, -17.26, -13.96, -9.66, 0.0, 8.68, 7.19, 0.0, -12.72, -11.12, -11.2, -15.25, -14.66, -13.92, -13.58, -13.74, -12.64, -12.33, -10.89, -7.4, -4.95, -4.18, -3.36, 0.0, 1.61, 2.63, 7.26, 9.42, 10.73, 10.73, 9.42, 7.54, 8.38, 9.8, 10.12, 10.01, 11.03, 11.62, 12.07, 12.52, 10.73, 11.18, 9.83, 9.83, 8.4, 7.9, 6.67, -0.0, -0.0, -2.82, -2.02, -3.96, -3.14, -6.4, -5.64, -5.81, -6.8, -7.2, -7.82, -7.13, -9.8, -10.12, -9.8, -8.58, -5.48, -2.81, -2.72, -3.47, -6.4, -6.4, -8.31, -10.73, -11.5, -13.59, -13.39, -13.76, -13.76, -14.75, -15.07, -15.18, -17.46, -20.07, -19.2, -16.9, -16.54, -16.99, -16.88, -15.11, -13.33, -13.34, -13.36, -11.64, -12.18, -13.37, -13.8, -14.66, -15.96, -17.85, -19.52, -18.85, -12.64, 9.17, 12.33, 11.06, 4.98, 0.0, -12.3, -10.73, -11.6, -15.33, -15.16, -14.55, -14.55, -13.74, -13.96, -12.33, -10.61, -8.51, -7.0, -5.99, -5.46, 2.35, 8.38, 9.8, 11.45, 11.87, 12.72, 11.6, 10.73, 10.01, 10.01, 12.04, 13.15, 13.15, 11.71, 12.07, 12.14, 11.62, 10.6, 10.0, 11.4, 10.96, 8.93, 5.75, 5.75, 2.19, -0.0, -0.0, -0.0, -0.0, -0.0, -3.25, -6.4, -6.6, -9.66, -10.02, -8.93, -9.22, -10.12, -7.51, -6.9, -5.15, -2.72, -2.72, -2.72, -2.72, -3.36, -6.0, -7.78, -10.01, -11.5, -13.03, -13.02, -13.39, -14.75, -15.61, -15.18, -14.64, -15.18, -17.35, -18.19, -15.99, -15.65, -15.2, -14.75, -14.3, -13.34, -12.9, -14.25, -15.18, -13.62, -13.43, -14.7, -16.38, -17.91, -18.39, -17.59, 0.0, 16.54, 15.27, 12.57, 6.0, 2.28, -4.24, -12.14, -10.35, -11.6, -15.99, -15.16, -14.55, -15.53, -14.88, -13.96, -12.33, -12.01, -8.51, -7.2, -6.8, -6.2, 4.95, 10.73, 12.72, 12.96, 13.41, 13.41, 12.83, 12.35, 12.52, 12.52, 12.96, 13.86, 13.41, 12.52, 9.83, 10.52, 12.07, 8.93, 9.3, 11.21, 12.35, 11.84, 6.71, 3.82, 4.8, 2.6, -0.0, -0.0, -0.0, -0.0, -3.96, -6.0, -8.58, -9.8, -9.66, -10.19, -10.3, -9.49, -8.85, -6.67, -4.24, -4.38, -2.28, -2.28, -2.28, -2.54, -5.6, -8.85, -10.01, -13.03, -13.03, -13.42, -14.39, -15.61, -16.02, -15.47, -14.55, -13.99, -15.27, -16.37, -16.54, -15.53, -14.66, -14.3, -13.86, -12.9, -13.8, -15.15, -16.27, -13.43, -12.27, -12.65, -14.07, -14.13, -13.12, -8.51, 8.93, 14.42, 10.12, 4.1, 0.0, 0.0, -7.44, -12.14, -10.35, -10.8, -15.59, -15.16, -15.53, -15.53, -15.99, -15.33, -14.95, -12.01, -10.05, -8.93, -8.68, -8.43, 0.0, 2.54, 12.79, 13.41, 13.67, 13.86, 13.86, 12.96, 12.52, 12.52, 12.96, 13.41, 13.41, 12.07, 9.83, 11.62, 13.41, 10.8, 11.2, 14.3, 13.86, 12.07, 10.4, 5.2, 4.8, 3.32, 2.82, -0.0, -0.0, -2.45, -6.21, -5.98, -7.26, -7.19, -7.44, -7.1, -9.09, -8.68, -8.18, -8.18, -6.4, -5.46, -5.46, -3.93, -4.38, -4.81, -5.6, -8.85, -11.8, -13.23, -14.51, -13.8, -15.27, -15.59, -15.99, -15.27, -13.59, -13.88, -14.31, -15.34, -15.78, -15.93, -15.53, -13.86, -13.41, -12.45, -12.91, -14.75, -16.93, -16.05, -14.18, -12.35, -10.43, -9.48, -7.69, -5.02, 2.35, 6.67, 4.1, 0.0, 0.0, 0.0, -4.1, -11.87, -11.12, -11.2, -15.59, -15.24, -15.99, -15.53, -15.99, -15.99, -14.95, -12.92, -11.7, -11.38, -10.02, -8.43, -6.8, -2.81, 11.06, 14.3, 14.31, 14.3, 10.43, 10.43, 15.65, 15.65, 14.75, 12.52, 12.71, 10.52, 9.97, 9.83, 10.28, 12.52, 12.07, 9.33, 9.21, 9.83, 9.04, 6.97, 5.2, 2.82, -0.0, -0.0, -4.81, -7.51, -6.97, -6.7, -5.2, -6.45, -5.99, -7.28, -7.54, -7.79, -8.57, -9.35, -10.47, -10.47, -9.35, -7.4, -6.52, -6.2, -5.75, -9.48, -13.95, -15.33, -14.18, -15.27, -15.27, -15.33, -15.38, -15.99, -14.75, -12.3, -13.15, -13.99, -15.61, -15.87, -15.05, -13.41, -11.55, -12.0, -14.23, -15.2, -16.09, -17.2, -15.27, -13.92, -11.38, -9.71, -7.82, -4.37, 0.0, 0.0, 0.0, 0.0, 0.0, 0.0, 0.0, -14.3, -11.09, -11.99, -15.59, -15.24, -15.99, -16.44, -16.44, -15.99, -14.95, -12.92, -11.7, -11.7, -11.38, -11.06, -9.77, -5.81, 0.0, 6.6, 0.0, 0.0, -9.48, -6.2, 6.4, 6.6, 10.12, 15.65, 13.01, 12.14, 11.45, 8.49, 10.41, 10.18, 7.9, 7.59, 7.59, 9.63, 10.2, 8.38, 5.52, 2.28, -0.0, -4.48, -7.51, -7.24, -6.97, -3.68, -0.0, -3.25, -3.82, -6.94, -9.17, -8.66, -9.31, -10.76, -12.22, -14.22, -11.17, -8.6, -7.06, -7.4, -6.21, -9.8, -12.64, -15.72, -16.54, -15.47, -15.27, -17.19, -17.45, -21.17, -19.73, -16.66, -13.19, -12.39, -14.31, -14.9, -12.96, -11.62, -11.53, -14.64, -15.57, -15.65, -16.09, -16.03, -16.39, -15.99, -14.82, -13.59, -9.67, -5.64, -3.2, -1.53, 0.0, 0.0, 0.0, 1.44, 1.77, 0.0, -13.99, -13.57, -15.87, -15.93, -15.59, -16.44, -16.44, -15.99, -15.59, -14.13, -12.71, -12.36, -12.36, -11.06, -9.77, -9.66, -9.17, -7.4, -7.0, -13.19, -12.39, -9.8, -6.4, -6.6, 0.0, 10.43, 14.3, 12.39, 9.48, 12.96, 10.8, 6.95, 7.9, 7.27, 7.9, 9.48, 11.09, 10.73, 10.41, 5.0, -0.0, -3.53, -6.45, -3.68, -0.0, 4.4, 10.28, 10.73, 11.62, 12.07, 0.0, -6.0, -6.94, -6.0, -4.52, -0.0, -0.0, 12.96, -0.0, -5.53, -8.28, -8.53, -13.8, -14.79, -16.76, -15.93, -17.62, -17.47, -19.41, -23.01, -23.32, -23.75, -20.75, -19.51, -14.03, -11.62, -9.83, -11.62, -14.64, -15.97, -15.99, -16.44, -16.01, -16.46, -15.87, -15.96, -15.19, -14.82, -13.91, -10.73, -6.54, -4.52, -3.01, -1.28, 0.0, 0.0, 0.0, 0.0, -11.6, -13.59, -15.87, -16.19, -16.34, -16.74, -16.44, -16.44, -16.02, -14.75, -13.82, -12.71, -13.39, -13.02, -12.22, -11.38, -11.7, -14.51, -14.51, -14.13, -14.39, -13.99, -13.59, -13.59, -15.2, -15.2, -15.65, -0.0, -0.0, 0.0, 13.86, 9.17, 9.6, 9.32, 10.0, 9.2, 9.63, 9.86, 8.23, 7.27, 0.0, -0.0, 7.59, 7.27, 10.73, 10.28, 9.83, 10.28, 9.26, 10.0, 9.67, 10.41, 10.41, 11.45, 11.71, 11.71, 12.14, 11.2, 15.65, -0.0, -9.6, -11.09, -12.87, -15.34, -16.22, -16.66, -16.31, -15.69, -15.59, -17.81, -20.82, -21.63, -23.37, -22.05, -18.33, -10.28, -11.62, -14.75, -16.54, -17.43, -16.99, -16.86, -16.88, -16.15, -15.39, -14.66, -14.24, -14.79, -14.3, -13.92, -11.35, -7.4, -4.52, -2.52, -2.52, -1.55, -1.48, 0.0, -2.54, -12.96, -16.09, -16.19, -16.34, -16.74, -16.74, -17.16, -16.44, -15.14, -13.82, -13.46, -13.97, -13.02, -13.39, -13.8, -13.23, -14.51, -14.51, -16.54, -16.54, -15.19, -14.79, -16.09, -15.65, -15.65, -11.06, -0.0, -0.0, 13.19, 14.3, 13.86, 12.44, 10.08, 10.75, 10.14, 10.18, 9.45, 8.38, 5.46, 11.18, 9.83, 10.28, 10.73, 9.83, 9.83, 9.83, 9.83, 9.83, 9.97, 10.41, 10.0, 10.4, 10.84, 10.41, 9.11, 9.54, 8.58, 10.4, 7.69, -8.2, -15.59, -12.79, -12.58, -13.86, -14.3, 0.0, 0.0, 0.0, 0.0, -11.38, -20.12, -20.56, -21.46, -20.56, -12.52, -13.33, -16.44, -17.43, -17.88, -16.99, -16.86, -16.91, -16.48, -14.84, -12.85, -11.6, -13.29, -13.89, -14.39, -13.1, -10.59, -8.43, -6.0, -5.4, -4.39, -3.25, -1.83, -10.37, -10.37, -16.27, -16.38, -16.6, -16.96, -16.74, -17.16, -15.99, -15.53, -13.82, -13.46, -13.97, -13.39, -13.39, -14.18, -13.59, -15.19, -15.59, -16.54, -16.96, -15.59, -15.59, -16.99, -16.54, -14.39, -0.0, 11.06, 12.65, 14.11, 14.75, 14.75, 14.3, 12.96, 10.25, 10.73, 10.28, 8.8, 9.75, 9.2, 10.73, 10.28, 9.39, 9.39, 10.28, 9.83, 9.83, 9.39, 9.83, 10.28, 9.97, 9.97, 10.84, 11.28, 11.28, 10.18, 7.81, 6.95, 8.55, 11.62, -0.0, -12.52, -11.84, -11.62, 11.62, 12.07, 11.71, 11.6, 9.17, 7.82, 3.16, -6.22, -21.46, 18.78, -18.78, -18.63, -14.84, -17.89, -18.76, -18.63, -18.33, -18.33, -18.14, -17.62, -15.91, -13.81, -10.8, -9.09, -11.64, -11.92, -11.92, -11.53, -10.02, -8.3, -7.19, -6.65, -4.55, -2.62, -7.82, -7.82, -16.27, -16.09, -16.6, -16.6, -16.96, -17.16, -16.39, -15.16, -14.19, -13.82, -13.97, -13.39, -14.79, -14.18, -14.57, -15.19, -15.19, -16.91, -16.91, -16.54, -15.59, -12.01, -7.6, -16.54, -0.0, 11.38, 13.8, 14.39, 15.27, 15.87, 15.59, 14.71, 12.93, 11.98, 8.91, 9.39, 9.83, 10.73, 10.28, 9.83, 9.83, 8.94, 10.28, 8.94, 9.83, 9.64, 10.08, 9.97, 9.97, 9.97, 9.97, 10.18, 10.6, 8.93, 7.59, 5.7, 5.7, 8.93, 12.07, -9.17, -11.2, 11.18, 10.73, 10.73, 10.41, 9.55, 9.67, 6.97, 2.72, 0.0, 21.9, 17.78, 17.53, -19.51, -16.34, -17.16, -18.24, -19.08, -19.67, -18.78, -17.74, -16.32, -15.91, -14.42, -13.07, -9.46, -9.27, -11.6, -11.99, -10.82, -11.33, -11.16, -8.85, -8.3, -7.44, -5.99, -8.01, -8.01, -16.42, -16.09, -16.8, -16.6, -16.34, -16.75, -16.39, -15.16, -14.19, -13.82, -14.36, -14.39, -14.18, -14.18, -14.57, -14.79, -15.59, -15.59, -16.48, -16.54, -16.54, 0.0, 0.0, -7.2, -0.0, 9.66, 14.79, 14.39, 15.07, 15.53, 15.58, 14.99, 14.11, 11.28, 10.45, 9.92, 9.42, 10.14, 9.83, 9.83, 9.83, 9.83, 9.83, 10.28, 10.14, 8.82, 9.2, 8.23, 9.75, 9.75, 9.75, 9.75, 8.55, 7.27, 5.7, 5.7, 5.7, 4.8, 7.9, -0.0, -0.0, 11.62, 10.73, 10.73, 10.18, 8.8, 6.64, 4.6, 5.4, 7.0, 19.08, 19.67, 19.67, -0.0, -14.78, -14.85, -15.99, -17.81, -19.55, -18.78, -17.33, -17.13, -17.13, -12.6, -12.25, -10.61, -9.84, -10.79, -11.16, -11.9, -12.79, -12.3, -10.4, -9.27, -10.12, -9.17, -9.62, -9.62, -16.42, -16.27, -16.09, -16.19, -16.6, -16.34, -16.39, -15.16, -14.55, -14.19, -14.36, -14.79, -14.18, -13.26, -13.23, -16.79, -16.54, -15.69, -13.39, -16.09, 0.0, 17.43, 14.79, 16.99, 11.06, 11.38, 11.6, 13.97, 14.38, 13.15, 14.03, 14.07, 12.94, 11.71, 10.6, 10.08, 9.55, 10.18, 11.06, 10.73, 9.83, 10.28, 11.18, 11.02, 11.03, 8.38, 6.7, 7.27, 9.75, 10.28, 9.97, 9.2, 8.55, 8.55, 7.27, 5.7, 4.6, 5.0, 3.82, 0.0, 8.22, 11.62, 11.18, 8.8, 9.33, 7.81, 6.64, 6.17, 5.52, 8.58, 10.73, 14.22, 20.79, 24.59, -15.25, -14.79, -15.87, -15.96, -16.92, -17.43, -16.71, -16.82, -16.27, -15.61, -15.41, -14.71, -14.03, -13.1, -11.9, -11.16, -12.79, -13.23, -12.72, -10.41, -10.82, -11.9, -11.53, -11.53, -16.19, -16.27, -16.09, -15.87, -16.6, -16.34, -16.34, -15.16, -14.55, -14.19, -14.75, -13.76, -14.79, -13.26, -12.01, -7.4, -11.7, -11.06, 0.0, 0.0, 12.33, 16.12, 16.76, 15.59, 12.57, 12.22, 11.52, 11.64, 12.74, 12.14, 11.87, 11.44, 11.21, 11.21, 10.79, 9.96, 10.18, 10.05, 10.41, 10.18, 10.73, 10.73, 11.11, 10.96, 10.0, 7.26, 6.17, 9.2, 10.28, 9.83, 9.64, 9.55, 9.6, 10.0, 7.68, 6.95, 6.98, 5.32, 1.76, 0.0, 0.0, 10.73, 7.59, 10.73, 9.75, 8.55, 7.27, 6.71, 4.48, 4.98, 5.23, 7.75, 12.42, 18.65, -19.51, -16.12, -17.39, -19.7, -17.43, -16.99, -15.78, -16.27, -16.92, -16.47, -16.22, -14.99, -13.07, -10.55, -10.65, -10.41, -11.99, -13.67, -15.2, -13.15, -11.53, -12.65, -13.56, -13.56, -16.19, -16.42, -16.27, -15.87, -15.59, -15.93, -16.34, -15.16, -14.55, -14.55, -14.75, -13.76, -13.76, -14.13, -12.01, -9.42, -7.4, -4.95, 6.6, 16.12, 10.46, 12.52, 13.8, 12.57, 11.38, 12.57, 11.52, 11.53, 10.79, 10.48, 10.09, 10.4, 10.4, 10.62, 10.62, 10.6, 10.46, 10.41, 10.32, 11.06, 11.18, 11.18, 11.18, 12.01, 11.21, 10.04, 7.87, 10.28, 10.28, 10.28, 9.64, 9.55, 9.96, 10.38, 9.2, 8.37, 7.9, 5.43, 0.0, 0.0, 0.0, 0.0, 7.59, 11.18, 9.75, 8.93, 7.59, 7.24, 4.81, 5.15, 4.95, 0.0, -8.63, -22.39, -19.29, -16.76, -18.59, -22.35, -21.9, -18.78, -17.43, -16.09, -14.75, -13.41, -13.79, -13.09, -12.56, -11.99, -11.99, -9.27, -9.77, -12.45, -14.75, -13.28, -12.39, -11.33, -12.81, -12.81, -15.77, -16.02, -16.27, -16.09, -15.87, -15.59, -15.24, -15.16, -15.16, -14.19, -14.75, -14.36, -14.36, -14.13, -13.26, -10.19, -9.42, -5.09, 0.0, 16.54, 11.38, 10.75, 10.43, 9.12, 9.66, 11.7, 11.38, 10.75, 10.65, 9.96, 9.27, 9.46, 9.46, 9.46, 10.09, 9.7, 10.68, 11.18, 10.75, 11.06, 11.06, 11.09, 11.11, 12.07, 11.0, 9.96, 10.52, 9.83, 10.28, 10.28, 10.14, 9.96, 9.96, 10.38, 9.96, 9.58, 8.22, 6.94, 0.0, -4.8, -10.28, 0.0, 0.0, 10.0, 10.6, 9.3, 6.45, 5.4, 5.8, 3.58, 3.79, 0.0, -23.69, -22.41, -11.02, -12.52, -16.99, -16.79, -15.17, -20.38, -18.33, -16.54, -16.01, -15.2, -14.3, -13.33, -13.09, -13.39, -13.48, -9.82, -9.27, -10.47, -14.3, -14.3, -12.79, -10.99, -12.27, -12.27, -15.91, -15.91, -15.77, -15.59, -15.87, -15.59, -15.24, -15.24, -14.78, -14.78, -14.75, -14.36, -14.36, -13.76, -13.26, -12.01, -12.01, -11.7, 0.0, 0.0, -0.0, 7.2, 8.18, 6.4, 7.59, 8.05, 10.05, 11.38, 10.75, 10.12, 10.3, 9.17, 9.27, 8.93, 8.93, 10.09, 10.68, 11.18, 11.03, 11.46, 11.51, 11.18, 11.28, 11.55, 11.62, 11.18, 10.73, 9.26, 9.39, 10.28, 10.14, 10.18, 9.96, 10.6, 9.96, 9.2, 8.49, 9.17, 0.0, -8.4, -8.91, -4.6, 8.22, 11.62, 10.6, 9.3, 9.67, 6.2, 5.2, 4.65, 3.36, 0.0, -20.26, -12.39, -9.11, -9.83, -11.6, -4.81, 0.0, 0.0, -10.66, -16.99, -15.55, -15.65, -14.75, -13.79, -13.53, -13.96, -14.75, -17.19, -13.2, -11.17, -13.28, -14.3, -13.57, -11.9, -12.42, -12.42, -15.56, -15.56, -15.77, -15.61, -15.59, -15.87, -15.59, -15.24, -15.24, -14.78, -15.19, -14.36, -14.36, -14.36, -14.13, -13.26, -13.59, -13.76, -16.54, 0.0, -0.0, 7.4, 8.68, 6.8, 7.36, 7.59, 9.49, 9.77, 11.06, 9.73, 9.16, 9.8, 9.17, 8.85, 8.93, 9.3, 10.0, 10.6, 11.03, 11.46, 11.46, 11.03, 10.4, 10.68, 11.03, 10.7, 12.35, 11.02, 10.73, 11.18, 11.46, 10.6, 9.96, 10.18, 9.55, 8.82, 8.37, 9.82, 7.19, -10.4, -8.94, -6.64, 10.0, 11.62, 10.84, 10.8, 10.8, 6.94, 5.0, 2.19, 0.0, -0.0, -15.07, -21.99, -16.54, -13.41, -11.99, -5.8, 0.0, 6.8, 3.9, -14.51, -17.43, -16.46, -16.99, -16.54, -16.44, -17.3, -18.63, -17.88, -16.33, -11.99, -12.87, -13.59, -13.57, -11.9, -11.28, -11.28, -15.56, -15.56, -15.39, -15.61, -15.42, -15.19, -14.95, -14.95, -15.24, -15.24, -15.19, -14.79, -14.79, -14.36, -15.2, -15.19, -14.18, -14.79, -16.54, -16.54, -0.0, -0.0, 4.01, 7.2, 5.64, 7.59, 7.59, 9.22, 8.43, 9.44, 9.44, 9.16, 8.59, 8.3, 9.62, 8.93, 9.3, 10.0, 10.6, 11.46, 11.62, 11.4, 10.0, 9.3, 9.09, 9.1, 10.88, 10.65, 9.83, 9.76, 10.47, 11.87, 10.58, 10.58, 9.75, 8.82, 8.82, 9.04, 10.4, 5.6, 0.0, 9.39, 9.83, 10.73, 11.4, 11.21, 10.35, 8.53, 6.21, 0.0, 0.0, 0.0, -13.14, -24.79, -27.72, -20.28, -16.6, -11.06, 0.0, 0.0, 3.36, -5.09, -18.78, -19.99, -19.22, -18.33, -18.78, -18.78, -17.43, -15.65, -16.99, -14.18, -13.57, -14.47, -12.72, -11.53, -11.28, -11.28, -15.15, -15.15, -14.99, -15.19, -15.42, -15.19, -15.19, -14.57, -14.95, -15.24, -15.52, -15.19, -14.79, -14.79, -15.49, -15.2, -14.79, -15.36, -16.54, -14.79, -0.0, -0.0, -0.0, 4.01, 5.81, 5.64, 7.59, 6.4, 7.93, 7.93, 9.16, 8.87, 8.59, 8.59, 8.85, 9.27, 9.67, 10.0, 10.6, 11.02, 11.18, 11.4, 9.58, 7.9, 7.59, 8.73, 10.09, 9.97, 9.83, 9.83, 11.09, 11.11, 12.35, 11.91, 10.6, 9.6, 9.55, 9.64, 10.08, 10.79, 10.04, 10.8, 8.91, 9.54, 10.96, 11.21, 10.73, 9.77, 4.1, 0.0, 0.0, 0.0, -13.59, -21.59, -27.27, -26.11, -21.06, -16.6, -9.17, -5.2, 0.0, 0.0, -16.99, -18.63, -16.99, -17.43, -16.54, -15.65, -14.75, -15.2, -16.99, -16.54, -15.05, -15.43, -13.15, -12.79, -11.28, -11.28, -14.79, -14.79, -15.15, -15.39, -15.19, -14.96, -14.67, -14.91, -14.57, -14.85, -14.85, -15.52, -15.11, -14.79, -14.79, -15.49, -15.2, -15.69, -16.22, -15.69, -5.23, -0.0, -0.0, 4.01, 3.16, 5.81, 4.81, 6.6, 6.4, 7.69, 7.44, 8.59, 8.3, 8.3, 8.85, 9.62, 10.41, 10.04, 10.8, 11.03, 11.06, 11.62, 11.62, 6.44, 5.98, 7.9, 9.09, 9.89, 9.83, 9.83, 10.73, 11.18, 10.22, 10.08, 10.6, 10.18, 10.18, 10.08, 9.11, 9.45, 9.66, 8.94, 10.6, 10.52, 12.14, 10.79, 9.42, 7.19, 4.1, 2.13, 0.0, -3.25, -14.75, -16.12, -20.12, -27.06, -23.85, -19.52, -12.71, -10.8, 0.0, 12.96, 14.3, -15.65, -17.88, -17.88, -16.99, -15.65, -15.2, -14.75, -15.2, -16.54, -17.43, -16.37, -14.61, -13.15, -11.64, -11.64, -14.79, -14.79, -14.79, -14.99, -15.19, -14.96, -14.67, -14.67, -14.33, -14.57, -15.19, -14.85, -15.52, -15.52, -15.52, -15.49, -15.49, -15.9, -16.54, -15.69, -9.17, -4.01, -0.0, -0.0, 3.16, 3.07, 4.81, 4.81, 6.6, 7.93, 7.69, 8.87, 8.59, 8.3, 8.85, 9.62, 10.41, 10.41, 10.8, 11.45, 11.18, 11.62, 11.06, 10.28, 4.4, 4.23, 6.69, 9.63, 9.76, 10.28, 11.18, 10.73, 10.68, 10.23, 10.52, 11.35, 11.02, 10.58, 9.63, 8.93, 8.73, 8.94, 8.94, 11.45, 11.03, 11.2, 8.38, 5.6, 1.71, 0.0, 0.0, -2.35, -11.99, -13.86, -15.2, -17.59, -23.37, -19.22, -13.86, -12.96, -0.0, 11.03, 13.41, 11.2, 0.0, 0.0, -14.84, -15.65, -15.65, -14.75, -14.75, -16.09, -16.54, -16.99, -16.41, -14.65, -13.59, -13.59, -14.97, -14.97, -14.79, -14.59, -14.75, -14.47, -14.96, -14.67, -14.67, -14.91, -15.19, -15.19, -15.19, -15.52, -15.52, -15.11, -15.69, -16.05, -16.37, -16.05, -9.17, -3.9, -0.0, -0.0, -0.0, -0.0, 2.15, 4.18, 6.6, 8.18, 7.93, 7.69, 8.87, 8.59, 8.3, 9.62, 10.41, 10.41, 10.8, 10.8, 11.18, 11.28, 11.18, 12.07, 12.07, 7.27, 6.01, 8.8, 10.28, 10.28, 11.18, 10.68, 10.23, 10.23, 10.52, 10.52, 11.91, 11.03, 10.05, 10.46, 10.0, 9.58, 10.35, 11.2, 10.04, 8.1, 7.69, 3.44, 0.0, -3.19, -3.81, -4.66, -12.39, -9.48, 10.12, 18.33, 21.9, -19.22, -18.63, -16.12, -3.96, 8.82, 12.52, 11.61, 10.79, 9.48, 3.25, -15.27, -16.09, -15.2, -16.09, -16.99, -16.54, -16.09, -16.99, -16.48, -15.49, -15.49, -14.62, -14.62, -14.79, -14.59, -14.99, -14.75, -14.47, -14.47, -14.67, -14.67, -14.91, -15.19, -15.19, -15.19, -15.77, -15.11, -15.69, -15.69, -16.37, -16.09, -13.39, -8.93, -7.0, -5.81, -2.57, -2.15, -0.0, -0.0, 4.05, 7.32, 7.93, 7.93, 8.87, 8.59, 8.3, 9.62, 9.62, 10.41, 10.8, 10.8, 10.8, 10.68, 10.88, 10.66, 11.18, 11.62, 10.0, 10.04, 10.28, 11.11, 11.11, 10.23, 10.23, 10.23, 10.52, 10.52, 9.6, 10.6, 10.88, 10.46, 9.86, 9.3, 10.04, 9.67, 6.7, 6.94, 6.0, 5.31, 0.0, -4.4, -4.8, -2.63, -11.38, -0.0, 10.33, 17.19, 19.67, 17.43, -17.97, -18.49, -12.61, 6.6, 12.58, 12.52, 10.4, 10.12, 8.87, 5.31, -10.75, -16.09, -15.34, -15.34, -15.65, -16.86, -16.99, -17.33, -16.54, -16.54, -14.62, -14.62, -14.42, -14.42, -14.18, -14.75, -14.47, -14.47, -13.76, -14.29, -14.67, -14.91, -15.19, -15.19, -15.19, -15.36, -14.71, -15.69, -16.05, -16.54, -14.39, -13.99, -11.06, -9.39, -5.64, -0.0, -0.0, -0.0, 1.77, 5.81, 8.18, 7.93, 9.16, 8.87, 9.48, 9.96, 9.62, 10.41, 10.41, 10.35, 10.8, 10.04, 10.09, 10.46, 10.47, 11.95, 11.95, 10.73, 10.28, 11.11, 10.66, 10.22, 10.22, 10.66, 10.47, 10.47, 10.04, 11.03, 10.18, 10.27, 9.7, 8.93, 9.27, 7.44, 6.7, 4.58, 5.2, 5.8, 3.82, 0.0, 0.0, 5.0, 8.68, 10.2, 9.4, 11.17, 16.31, 14.55, 16.54, -16.87, -14.02, -3.77, 7.0, 14.3, 12.39, 10.12, 8.31, 7.58, 2.35, -8.18, -12.27, -12.27, -15.2, -15.43, -15.97, -16.09, -16.58, -16.58, -14.22, -14.22, -14.42, -14.42, -14.18, -13.91, -13.91, -13.6, -14.09, -13.76, -14.29, -14.67, -14.91, -15.46, -15.46, -14.79, -14.94, -15.41, -16.15, -15.97, -15.65, -15.34, -13.99, -10.75, -4.81, -0.0, 8.18, 6.4, 3.07, 3.36, 7.1, 7.93, 9.16, 8.87, 9.8, 10.3, 9.96, 10.79, 11.2, 10.73, 10.35, 10.04, 8.93, 9.46, 9.48, 10.46, 11.09, 10.73, 10.73, 11.18, 10.66, 10.22, 10.66, 10.65, 10.2, 10.04, 10.91, 10.6, 10.18, 9.4, 9.82, 8.22, 7.44, 5.54, 5.77, 4.4, 3.25, 5.2, 5.6, 8.53, 8.82, 8.38, 6.2, 13.28, 10.79, 5.53, 10.12, 11.62, 13.86, -4.34, -9.09, -9.92, -4.12, 11.06, 14.84, 11.38, 8.68, 6.6, 2.02, -2.72, -7.69, -10.12, -13.99, -15.2, -15.97, -15.65, -15.99, -15.99, -14.22, -14.22, -14.03, -14.42, -14.18, -14.18, -13.91, -13.91, -13.6, -14.09, -13.76, -14.29, -14.67, -14.91, -15.46, -15.06, -15.36, -14.94, -15.41, -15.71, -15.65, -15.65, -14.9, -14.42, -0.0, 8.18, 10.43, 10.12, 8.66, 4.81, 5.28, 7.69, 8.87, 8.87, 9.8, 10.65, 10.3, 11.16, 11.6, 11.62, 11.62, 10.73, 10.04, 8.93, 9.09, 10.27, 10.75, 10.65, 10.73, 10.73, 10.28, 10.28, 11.18, 10.73, 10.2, 10.65, 10.41, 10.18, 9.2, 9.6, 8.58, 7.59, 6.97, 5.95, 5.0, 5.0, 3.39, 4.6, 5.2, 7.78, 8.53, 6.2, 3.68, 9.66, 23.43, 6.63, 3.01, 12.27, 11.09, -0.0, -6.34, -9.42, -11.17, -9.92, 0.0, 11.7, 7.2, 4.18, 0.0, -6.0, -10.79, -9.48, -9.8, -14.3, -14.3, -15.2, -15.2, -15.2, -14.22, -14.22, -14.03, -13.65, -14.18, -14.18, -13.91, -13.91, -13.6, -13.6, -14.09, -14.29, -14.29, -14.67, -14.52, -15.06, -14.65, -14.65, -15.12, -14.99, -15.53, -15.2, -15.2, -14.75, -6.6, 3.58, 5.31, 7.36, 6.6, 6.4, 6.0, 7.44, 8.59, 8.87, 10.65, 10.65, 10.65, 11.53, 11.99, 12.3, 12.71, 12.27, 10.73, 9.27, 9.46, 9.7, 10.75, 10.65, 10.73, 10.73, 10.73, 11.18, 10.73, 10.2, 10.2, 10.2, 9.97, 9.46, 9.63, 9.6, 9.77, 7.9, 6.71, 6.71, 5.29, 5.52, 5.52, 5.52, 5.2, 7.51, 6.94, 5.6, 3.04, 9.12, 23.69, 4.26, -0.0, -0.0, 3.42, -0.0, -5.37, -10.61, -10.61, -10.19, -7.6, 11.38, 3.9, 0.0, -3.93, -8.05, -11.2, -11.87, -8.85, -12.72, -13.41, -14.75, -15.2, -15.2, -13.87, -13.87, -13.65, -13.65, -13.39, -13.76, -13.76, -13.46, -13.91, -13.6, -14.09, -14.09, -14.29, -14.67, -14.29, -14.29, -14.39, -14.65, -14.65, -14.94, -15.27, -15.08, -15.2, -15.2, -10.43, -0.0, -0.0, 2.81, 4.52, 4.52, 6.4, 7.69, 7.44, 8.59, 10.3, 10.65, 11.53, 11.53, 11.99, 12.72, 13.23, 12.96, 12.27, 8.53, 9.16, 9.46, 10.75, 11.06, 11.18, 10.73, 10.73, 11.18, 10.73, 10.2, 10.65, 9.89, 9.46, 9.04, 9.04, 8.37, 7.47, 8.22, 6.44, 5.0, 5.0, 5.0, 5.52, 5.75, 5.75, 6.21, 5.6, 6.2, 6.4, 11.06, 19.67, 5.2, -0.0, -0.0, -0.0, -0.0, -5.51, -8.74, -11.06, -10.75, -11.06, -14.75, -4.66, -7.59, -9.48, -8.85, -11.2, -12.52, -12.52, -11.87, -12.96, -12.96, -14.75, -14.75, -13.49, -13.49, -13.65, -13.65, -13.39, -13.39, -13.76, -13.46, -13.46, -13.91, -13.6, -14.09, -14.09, -14.09, -13.76, -14.29, -13.9, -14.39, -14.65, -14.65, -14.99, -14.84, -15.05, -14.75, -13.99, -8.18, -0.0, -0.0, 2.81, 4.52, 6.4, 7.93, 7.69, 9.48, 9.48, 10.3, 11.16, 11.64, 12.33, 12.89, 13.28, 12.96, 12.96, 10.01, 8.53, 9.82, 10.68, 11.51, 11.18, 11.18, 10.73, 10.73, 10.62, 10.62, 9.89, 9.46, 9.46, 9.04, 9.04, 8.37, 7.81, 6.32, 5.52, 4.05, 4.6, 4.15, 3.82, 3.39, 5.0, 5.75, 5.8, 6.67, 3.07, 7.6, 19.22, 9.67, -0.0, -0.0, -0.0, -3.6, -7.47, -9.92, -8.58, -9.17, -10.73, -12.96, -11.12, -9.77, -9.77, -10.37, -11.6, -12.96, -12.96, -12.96, -12.52, -12.96, -13.86, -13.86, -13.49, -13.49, -13.65, -13.65, -13.39, -13.39, -13.76, -13.76, -13.46, -13.46, -13.91, -13.6, -13.6, -14.09, -14.09, -14.09, -13.9, -13.9, -14.39, -14.65, -14.24, -14.56, -14.75, -14.75, -14.75, -12.27, -4.52, -0.0, -0.0, 5.31, 7.36, 7.36, 8.94, 9.8, 9.8, 10.3, 11.16, 11.16, 12.33, 12.89, 13.28, 12.96, 12.42, 12.71, 7.9, 9.27, 11.09, 11.51, 11.62, 11.18, 11.18, 10.62, 10.62, 10.62, 9.46, 9.46, 9.04, 8.63, 8.54, 8.0, 7.47, 6.64, 5.29, 3.87, 4.23, 2.19, 1.93, 3.82, 3.98, 3.98, 5.98, 4.1, 3.07, 8.4, 11.65, 12.64, 8.31, 3.33, -0.0, -4.38, -8.8, -12.33, -10.75, -9.17, -11.21, -12.96, -12.72, -9.17, -8.1, -9.17, -10.37, -13.41, -13.41, -13.41, -12.96, -12.96, -13.23, -13.41, -13.49, -13.49, -13.27, -13.65, -13.39, -12.98, -13.39, -13.39, -13.46, -13.46, -13.46, -13.54, -13.23, -13.23, -14.09, -13.71, -13.71, -14.17, -13.9, -14.39, -13.74, -13.99, -14.42, -14.31, -14.75, -13.88, -11.9, -4.52, -0.0, 3.47, 5.31, 7.36, 8.94, 10.12, 9.8, 10.65, 11.16, 11.16, 12.33, 12.89, 12.89, 12.86, 12.52, 12.96, 10.6, 10.04, 11.09, 11.95, 11.62, 11.18, 11.18, 10.62, 10.62, 9.89, 9.46, 9.46, 8.63, 8.63, 8.15, 8.0, 7.47, 6.64, 6.7, 4.66, 3.87, 2.1, 2.6, 4.6, 4.8, 6.71, 4.15, 3.14, 2.89, 5.51, 5.85, 6.26, 7.59, 5.64, -0.0, -7.47, -12.01, -12.16, -12.16, -11.8, -12.87, -13.41, -12.87, -9.8, -6.9, -6.9, -8.05, -13.01, -13.15, -13.15, -13.41, -12.96, -13.23, -13.23, -13.49, -13.49, -13.27, -13.27, -13.26, -12.98, -12.98, -12.98, -13.1, -13.1, -13.1, -13.1, -13.91, -13.6, -13.6, -13.6, -13.6, -13.71, -13.71, -13.51, -13.51, -13.34, -13.59, -13.99, -14.31, -14.3, -13.88, -10.12, -0.0, -0.0, 6.4, 8.58, 10.12, 10.12, 11.17, 11.17, 11.53, 11.16, 11.99, 12.72, 12.89, 12.46, 12.86, 12.07, 12.96, 11.51, 11.61, 11.95, 11.62, 11.18, 11.06, 10.62, 10.62, 9.89, 9.46, 9.04, 8.63, 7.44, 7.81, 7.64, 8.0, 6.64, 4.56, 5.06, 3.82, 3.82, 5.06, 6.17, 6.44, 6.71, 4.15, 1.91, 2.72, 4.95, 19.67, -0.0, 3.41, 2.65, -0.0, -6.2, -9.48, -9.48, -9.48, -10.73, -13.59, -14.3, -13.28, -10.43, -7.36, -7.13, -6.2, -11.53, -13.86, -13.44, -13.41, -13.41, -12.79, -13.23, -13.14, -13.14, -12.89, -12.89, -12.89, -12.62, -12.98, -12.98, -12.98, -12.65, -13.1, -13.46, -13.46, -13.91, -13.6, -13.6, -13.6, -13.23, -13.71, -13.33, -13.13, -13.13, -12.95, -13.19, -13.99, -13.75, -14.3, -14.3, -10.12, -0.0, 6.4, 7.69, 10.12, 11.44, 12.27, 12.27, 11.88, 12.39, 12.39, 13.15, 12.72, 12.3, 12.83, 12.39, 12.52, 13.41, 11.62, 11.18, 10.73, 10.73, 10.62, 10.18, 10.18, 9.89, 9.46, 8.63, 8.63, 7.44, 7.44, 7.21, 7.64, 7.13, 7.59, 6.95, 6.95, 7.27, 6.14, 5.95, 6.17, 4.15, 3.68, 1.91, 0.0, 3.36, 8.68, 9.2, -0.0, -0.0, -0.0, -4.38, -10.43, -10.43, -12.16, -14.39, -15.78, -15.2, -13.99, -11.52, -10.43, -8.58, -6.4, -10.12, -13.86, -13.44, -13.41, -12.96, -12.79, -12.79, -13.14, -13.14, -12.89, -12.89, -12.89, -12.62, -12.98, -12.98, -12.98, -12.65, -13.01, -13.46, -13.46, -13.46, -13.6, -13.6, -13.6, -13.23, -13.23, -12.86, -12.65, -12.65, -12.45, -12.09, -12.9, -13.19, -13.57, -13.88, -14.3, -0.0, -0.0, 12.79, 11.9, 12.79, 12.39, 13.28, 13.28, 12.27, 13.57, 13.15, 13.15, 13.23, 12.79, 12.79, 12.83, 12.96, 12.07, 10.73, 10.28, 10.18, 10.18, 9.74, 9.74, 9.46, 9.03, 8.63, 8.0, 7.44, 7.44, 7.44, 7.21, 7.28, 6.45, 6.95, 6.95, 6.95, 6.17, 7.27, 6.17, 3.53, 1.64, 0.0, 0.0, 3.96, 8.85, 15.27, 12.15, -0.0, -5.52, -9.6, -10.41, -12.64, -12.96, -16.39, -17.43, -16.22, -13.99, -12.27, -10.43, -8.58, -6.4, -7.93, -13.86, -13.01, -12.96, -12.79, -12.79, -12.79, -12.76, -12.76, -12.89, -12.89, -12.89, -12.62, -12.98, -12.57, -12.57, -12.65, -13.01, -13.01, -13.46, -13.46, -13.46, -13.11, -12.76, -12.76, -12.76, -12.5, -12.5, -12.27, -12.27, -11.93, -12.09, -12.27, -12.42, -12.79, -12.79, -14.3, 0.0, 14.3, 14.3, 14.3, 13.44, 13.88, 14.03, 13.28, 13.28, 14.03, 13.59, 13.15, 13.41, 12.96, 12.96, 12.96, 12.52, 11.62, 10.73, 10.18, 9.74, 9.74, 9.03, 8.91, 8.91, 8.0, 8.0, 7.07, 7.07, 7.44, 6.87, 6.87, 6.32, 7.59, 6.95, 6.95, 6.17, 6.44, 5.29, 3.53, 1.58, 0.0, 1.64, 4.1, 8.38, 11.87, 17.88, -0.0, -11.46, -12.19, -13.39, -17.07, -17.07, -19.59, -19.67, -15.77, -13.42, -11.8, -11.44, -10.12, -7.69, -4.38, -13.86, -13.41, -12.58, -12.71, -12.71, -12.71, -12.76, -12.76, -12.52, -12.89, -12.89, -12.62, -12.22, -12.22, -12.57, -12.22, -12.65, -12.65, -13.01, -13.1, -13.1, -13.1, -12.76, -12.4, -12.4, -12.05, -12.13, -11.8, -11.8, -11.42, -11.93, -11.72, -11.44, -11.64, -11.17, -11.9, -6.4, 0.0, 10.12, 14.3, 14.3, 14.3, 14.3, 14.03, 14.03, 14.03, 13.59, 13.86, 13.41, 12.96, 12.96, 12.52, 12.52, 12.07, 11.51, 11.02, 10.14, 9.7, 9.33, 8.91, 8.91, 7.6, 7.6, 6.7, 6.7, 7.07, 6.52, 6.87, 6.32, 6.01, 6.7, 5.06, 3.65, 3.7, 2.82, 1.52, 0.0, 1.45, 3.53, 5.6, 8.38, 8.94, 11.38, 18.33, -10.2, -15.82, -20.23, -22.89, -23.19, -23.23, -20.12, -17.53, -13.59, -9.66, -9.12, -9.8, -6.4, -5.6, -12.96, -12.96, -12.58, -11.62, -11.62, -11.62, -12.76, -12.76, -12.52, -12.52, -12.89, -12.26, -12.22, -12.22, -12.22, -12.22, -12.22, -12.65, -12.65, -12.65, -13.1, -12.73, -12.4, -12.4, -12.05, -12.05, -12.05, -11.33, -11.33, -11.8, -11.07, -10.63, -10.69, -10.12, -9.16, -8.94, -6.4, 0.0, 0.0, 6.4, 12.79, 13.57, 14.3, 14.3, 14.3, 14.3, 13.86, 13.41, 13.41, 12.96, 12.96, 12.52, 12.07, 11.95, 11.46, 11.46, 11.02, 10.18, 9.75, 9.33, 8.8, 8.0, 8.0, 7.07, 6.7, 6.18, 6.52, 6.52, 5.72, 6.64, 5.36, 4.6, 3.11, 2.46, 2.7, 1.28, 1.45, 3.39, 5.2, 5.6, 6.0, 6.2, 6.8, 7.2, -12.64, -11.53, -20.38, -26.45, -26.56, -22.36, -21.01, -19.22, -14.66, -10.46, -7.0, -6.6, -9.48, -5.4, -8.85, -12.52, -11.87, -10.8, -10.8, -10.8, -12.52, -12.52, -12.52, -12.52, -12.52, -12.52, -11.87, -12.22, -12.22, -11.88, -11.88, -11.88, -12.3, -12.3, -12.3, -12.73, -12.4, -12.05, -12.05, -11.6, -11.2, -11.33, -10.99, -10.99, -10.58, -10.12, -10.12, -10.12, -9.31, -7.93, -7.36, -2.81, 0.0, 4.52, 7.93, 11.9, 13.57, 13.88, 14.3, 13.86, 13.86, 13.41, 13.41, 12.96, 12.96, 12.52, 12.07, 11.95, 11.03, 11.03, 10.6, 10.18, 10.18, 9.75, 8.8, 8.8, 8.0, 7.07, 6.7, 6.18, 5.69, 6.01, 5.44, 6.32, 5.36, 4.4, 3.49, 3.49, 3.65, 4.4, 3.25, 5.0, 5.2, 3.96, 4.1, 6.0, 5.63, 6.8, 0.0, -15.69, -15.02, -22.23, -24.92, -24.49, -23.25, -20.12, -17.53, -12.52, -8.85, -5.8, -5.6, -8.85, -10.8, -11.45, -11.71, -10.8, -10.8, -10.8, -12.52, -12.52, -12.52, -12.16, -12.52, -12.52, -11.87, -11.87, -11.87, -11.88, -11.88, -11.88, -12.3, -12.3, -12.3, -11.95, -11.95, -11.6, -11.6, -11.6, -10.87, -10.87, -10.54, -10.12, -10.12, -10.12, -9.57, -9.5, -8.78, -7.58, -5.63, -4.52, 0.0, 0.0, 3.47, 7.93, 11.9, 11.9, 13.44, 13.44, 13.01, 13.01, 12.71, 12.79, 12.96, 12.52, 12.07, 11.91, 11.03, 11.03, 10.6, 10.6, 10.18, 9.6, 9.2, 8.8, 7.33, 6.98, 6.63, 5.69, 5.37, 5.15, 5.44, 5.72, 5.82, 6.42, 6.42, 6.95, 5.06, 3.87, 2.82, 2.95, 3.19, 3.32, 3.96, 6.0, 6.2, 5.63, 4.66, -7.0, -16.05, -15.71, -20.6, -25.19, -26.82, -21.46, -16.66, -11.6, -9.17, -8.85, -8.85, -8.53, -10.4, -10.6, -10.6, -9.6, -9.6, -9.6, -12.16, -12.16, -12.16, -12.16, -12.16, -12.16, -11.9, -11.87, -11.87, -11.87, -11.54, -11.54, -11.54, -11.95, -11.95, -11.95, -11.95, -11.6, -11.6, -11.26, -10.87, -10.54, -10.12, -10.12, -10.12, -9.62, -9.06, -8.94, -8.2, -6.95, -6.4, -5.18, -2.09, 0.0, 0.0, 3.47, 6.4, 9.8, 11.53, 11.99, 11.99, 11.6, 11.6, 12.04, 12.35, 12.52, 12.07, 11.91, 11.03, 10.4, 10.6, 10.6, 10.6, 9.2, 8.82, 8.03, 7.68, 7.33, 6.63, 5.69, 5.69, 4.87, 5.15, 5.44, 6.01, 5.72, 6.95, 6.4, 5.72, 3.87, 2.7, 0.0, 0.0, 1.71, 3.44, 5.8, 7.44, 7.44, 5.63, 0.0, -11.06, -15.36, -16.74, -22.39, -26.29, -22.35, -11.99, -8.23, -10.4, -10.41, -8.53, -6.45, -7.59, -9.6, -9.75, -8.8, -8.8, -8.8, -12.16, -12.16, -12.16, -12.16, -12.16, -11.9, -11.9, -11.52, -11.52, -11.87, -11.54, -11.54, -11.54, -11.54, -11.54, -12.3, -11.6, -11.6, -11.26, -11.26, -10.54, -10.12, -10.12, -10.12, -9.62, -9.62, -9.06, -8.41, -7.68, -7.36, -5.99, -4.66, -3.58, -2.09, 0.0, 0.0, 3.47, 6.2, 9.8, 9.48, 9.48, 10.79, 11.6, 11.62, 11.87, 12.35, 11.91, 11.91, 11.03, 9.97, 9.97, 9.58, 9.58, 9.2, 8.38, 8.03, 7.68, 7.33, 6.32, 6.01, 5.69, 4.87, 4.87, 5.15, 5.15, 6.32, 6.01, 6.69, 5.98, 5.1, 4.05, 1.39, 0.0, 0.0, 1.71, 5.6, 7.19, 7.19, 5.46, 4.05, 0.0, -13.99, -14.53, -16.1, -24.39, -19.67, -13.59, -8.58, -9.6, -10.84, -11.03, -8.22, -7.9, -7.59, -8.55, -8.18, -8.18, -8.18, -12.16, -11.79, -11.79, -11.79, -11.79, -11.54, -11.54, -11.52, -11.52, -11.15, -10.81, -11.2, -11.54, -11.88, -11.88, -11.54, -11.6, -11.26, -11.26, -10.92, -10.54, -10.54, -9.67, -9.16, -9.16, -8.58, -9.06, -8.41, -7.92, -7.06, -6.6, -5.99, -3.2, -1.83, 0.0, 0.0, 0.0, 3.36, 6.2, 8.05, 9.48, 9.17, 10.37, 10.73, 11.62, 11.91, 11.91, 11.45, 9.97, 9.97, 9.97, 9.97, 9.58, 8.38, 8.38, 8.03, 7.68, 6.64, 6.32, 5.59, 5.31, 4.46, 4.22, 4.87, 5.37, 4.58, 6.01, 6.64, 6.95, 7.27, 6.24, 5.32, 3.25, 3.65, 1.58, 5.2, 6.94, 5.11, 3.68, 1.96, 0.0, 0.0, -10.12, -6.31, -21.29, -21.48, -16.91, -10.8, -7.9, -9.3, -10.6, -10.6, -8.22, -9.3, -8.93, -8.18, -8.18, -8.18, -11.79, -11.79, -11.79, -11.79, -11.79, -11.54, -11.54, -11.17, -11.17, -11.15, -11.14, -11.14, -11.47, -11.54, -11.54, -11.54, -10.84, -11.26, -10.92, -10.92, -10.54, -10.12, -9.67, -9.16, -9.16, -8.58, -8.41, -8.68, -7.92, -7.06, -6.6, -5.48, -4.66, -3.58, -1.77, 0.0, 0.0, 2.72, 4.98, 6.0, 5.8, 7.78, 7.51, 10.01, 11.62, 11.84, 11.84, 11.21, 10.35, 9.97, 9.97, 9.97, 9.97, 8.73, 8.38, 8.03, 6.95, 6.64, 5.59, 5.59, 5.31, 5.03, 4.46, 4.22, 4.22, 4.22, 5.86, 6.64, 6.3, 5.46, 5.72, 6.58, 6.87, 8.03, 6.17, 6.98, 5.4, 3.44, 1.83, 1.83, 0.0, 0.0, 10.43, -8.62, -19.6, -22.79, -18.33, -14.31, -8.53, -10.04, -11.03, -12.3, -9.67, -8.22, -7.59, -7.27, -7.27, -7.27, -11.09, -11.09, -11.42, -11.42, -11.54, -11.54, -11.54, -11.17, -11.52, -11.49, -11.14, -11.14, -11.14, -11.14, -11.54, -10.84, -10.84, -10.84, -10.92, -10.54, -10.12, -10.12, -9.67, -9.16, -9.16, -8.85, -8.68, -8.68, -7.92, -7.06, -6.6, -5.48, -4.66, -3.1, -3.47, -2.02, 0.0, 0.0, 2.63, 4.98, 5.8, 5.8, 7.51, 8.85, 10.73, 11.84, 11.84, 11.21, 10.35, 9.42, 10.35, 10.35, 9.08, 8.73, 7.59, 7.27, 6.14, 5.86, 5.59, 4.96, 4.71, 4.46, 4.22, 4.22, 4.22, 4.22, 4.75, 4.22, 5.1, 5.1, 5.1, 5.1, 5.98, 7.27, 6.58, 7.59, 5.2, 3.32, 3.44, 3.44, 3.56, 5.15, -0.0, -8.34, -16.76, -20.34, -17.43, -13.01, -10.8, -9.67, -9.3, -9.3, -7.9, -6.2, -7.59, -5.7, -5.7, -5.7, -11.09, -11.09, -11.09, -11.42, -11.18, -11.54, -11.17, -11.52, -11.52, -11.52, -10.81, -11.14, -10.81, -10.81, -10.43, -10.84, -10.84, -10.84, -10.84, -10.54, -10.43, -10.43, -9.97, -9.44, -8.85, -8.85, -8.94, -8.94, -7.92, -7.06, -6.1, -5.48, -5.81, -4.52, -3.47, -1.72, 0.0, 0.0, 2.2, 2.2, 2.54, 4.81, 6.44, 8.85, 10.73, 11.21, 10.8, 10.8, 9.66, 8.53, 9.42, 9.42, 8.22, 6.98, 6.7, 6.42, 6.14, 5.86, 5.72, 4.96, 4.71, 4.46, 4.22, 3.4, 3.6, 3.6, 3.6, 3.6, 4.6, 5.32, 4.8, 4.8, 4.8, 4.6, 4.88, 3.87, 4.8, 5.2, 5.6, 6.94, 6.94, 8.38, -0.0, -10.8, -17.03, -18.39, -16.54, -12.07, -10.41, -9.3, -9.3, -9.67, -8.22, -6.2, -6.2, -5.46, -5.46, -5.46, -11.09, -11.09, -11.09, -10.82, -11.17, -11.17, -11.17, -11.17, -11.52, -11.52, -10.81, -10.81, -10.81, -10.81, -10.43, -10.84, -10.84, -10.84, -10.84, -10.43, -10.43, -10.43, -9.97, -9.73, -9.12, -9.12, -8.43, -7.92, -7.92, -7.06, -6.1, -6.4, -5.31, -4.52, -3.1, -3.36, -1.72, 0.0, 0.0, 2.13, 2.13, 2.13, 4.65, 7.51, 8.85, 10.35, 9.66, 9.66, 9.66, 8.53, 8.53, 8.53, 7.26, 6.98, 6.7, 6.42, 6.14, 5.86, 5.21, 5.72, 4.21, 3.99, 4.46, 3.6, 3.6, 3.6, 3.8, 2.69, 3.35, 3.77, 3.77, 3.77, 4.8, 4.6, 3.61, 2.49, 1.45, 3.07, 5.2, 7.73, 9.62, 11.17, 17.88, -7.8, -17.87, -19.67, -17.35, -14.3, -11.18, -10.6, -9.67, -9.67, -8.22, -6.45, -6.2, -5.7, -5.7, -5.7, -11.09, -11.09, -11.09, -10.82, -10.82, -10.82, -10.82, -11.17, -11.17, -11.17, -10.48, -10.48, -10.81, -10.43, -10.43, -10.43, -10.84, -11.17, -11.17, -10.75, -10.75, -10.27, -10.27, -9.73, -9.12, -9.12, -8.43, -7.92, -7.92, -7.06, -5.92, -6.4, -5.31, -4.11, -4.38, -3.01, -1.72, 0.0, 0.0, 0.0, 0.0, 2.13, 3.96, 7.51, 8.85, 8.85, 9.66, 9.66, 9.66, 8.53, 8.53, 7.26, 6.98, 6.98, 6.7, 6.42, 6.14, 6.14, 5.21, 4.96, 4.44, 4.21, 3.99, 3.17, 3.17, 3.35, 3.35, 2.33, 2.06, 2.49, 3.61, 5.32, 5.1, 4.88, 3.87, 3.87, 2.7, 2.82, 4.8, 8.22, 9.96, 9.8, 14.53, -0.0, -11.6, -17.31, -15.38, -16.48, -12.96, -10.84, -9.67, -9.67, -10.04, -6.45, -6.2, -6.2, -6.2, -6.2, -11.09, -11.09, -11.09, -10.82, -10.82, -10.82, -10.82, -10.82, -10.82, -11.17, -10.48, -10.81, -10.81, -10.43, -10.75, -10.75, -10.75, -11.17, -10.75, -10.75, -10.75, -10.27, -10.27, -9.73, -8.85, -9.12, -8.18, -7.43, -7.68, -6.85, -5.92, -5.92, -5.31, -3.98, -3.98, -3.01, -1.48, 0.0, 0.0, 0.0, 0.0, 0.0, 2.06, 4.65, 7.51, 7.51, 8.53, 8.53, 8.53, 7.24, 7.24, 7.26, 6.98, 5.75, 5.52, 5.29, 4.4, 5.06, 5.21, 4.96, 4.44, 4.21, 3.6, 3.35, 3.35, 3.35, 2.46, 2.46, 2.17, 2.82, 5.1, 5.98, 5.72, 4.66, 4.66, 3.7, 5.21, 5.86, 5.29, 8.22, 8.01, 7.79, 12.65, 9.67, -3.9, -14.26, -16.81, -17.78, -16.09, -13.86, -12.3, -10.79, -9.17, -7.19, -6.94, -8.85, -8.85, -8.85, -10.73, -10.73, -10.47, -10.82, -10.82, -10.82, -10.82, -10.82, -10.82, -11.17, -10.48, -10.81, -10.81, -10.75, -10.75, -10.75, -10.75, -10.75, -10.75, -10.75, -10.75, -9.97, -10.75, -10.22, -8.85, -8.18, -8.18, -7.21, -7.21, -6.85, -5.92, -5.92, -4.89, -3.98, -3.98, -2.63, -1.48, 0.0, 0.0, 0.0, 0.0, 0.0, 1.83, 4.65, 5.6, 5.6, 7.24, 7.24, 7.24, 6.21, 6.97, 5.75, 5.0, 4.8, 4.8, 4.6, 4.6, 4.4, 4.2, 4.0, 3.8, 3.35, 2.98, 2.98, 2.98, 2.33, 2.46, 2.46, 1.26, 2.17, 2.97, 3.92, 4.6, 4.66, 4.66, 4.66, 5.21, 5.46, 5.7, 6.45, 6.21, 6.65, 11.52, 13.76, -3.75, -12.39, -13.41, -17.59, -17.88, -16.54, -15.27, -12.27, -9.48, -7.44, -7.19, -9.17, -9.17, -9.17, -10.73, -10.73, -10.47, -10.47, -10.47, -10.82, -10.82, -10.82, -10.82, -11.17, -10.48, -10.81, -10.81, -11.14, -10.75, -10.75, -10.75, -10.31, -10.75, -10.75, -9.97, -9.97, -10.75, -10.22, -9.34, -8.18, -7.93, -7.21, -7.21, -6.4, -5.92, -5.92, -4.74, -3.65, -3.98, -2.63, -2.91, -1.61, -1.61, 0.0, 0.0, 0.0, 1.83, 4.81, 4.65, 5.6, 7.24, 5.4, 4.48, 6.21, 6.97, 5.75, 5.0, 4.8, 4.6, 4.6, 5.7, 5.46, 5.21, 4.0, 4.0, 3.35, 2.98, 2.98, 2.06, 2.06, 2.17, 1.11, 1.26, 1.26, 1.16, 1.39, 4.05, 4.8, 3.7, 3.87, 3.87, 4.88, 5.1, 4.23, 4.75, 6.43, 10.12, 15.18, -0.0, -12.39, -15.49, -18.39, -18.21, -18.78, -17.88, -16.05, -12.27, -7.19, -7.19, -9.17, -9.17, -9.17, -10.73, -10.73, -10.47, -10.47, -10.47, -10.47, -10.47, -10.82, -10.82, -11.17, -10.48, -10.81, -10.81, -10.43, -10.43, -10.43, -10.01, -10.01, -10.43, -9.97, -9.97, -9.97, -9.44, -9.92, -9.34, -8.41, -8.41, -7.21, -7.21, -6.85, -6.85, -5.73, -4.74, -4.74, -3.85, -3.85, -2.91, -2.81, -1.61, -1.61, -1.61, 0.0, 0.0, 2.45, 4.65, 4.65, 5.4, 5.4, 2.37, 4.32, 4.32, 4.15, 3.53, 4.23, 4.23, 5.7, 5.7, 5.46, 5.21, 4.2, 4.0, 2.33, 2.33, 2.06, 2.06, 2.06, 1.11, 1.11, 1.26, 0.0, 0.0, 1.04, 2.04, 1.91, 2.28, 2.39, 2.39, 3.87, 4.05, 4.23, 4.58, 6.43, 8.87, 14.75, 4.55, -9.3, -17.07, -16.81, -18.39, -20.12, -19.22, -17.43, -16.09, -13.57, -9.17, -9.17, -9.17, -9.17, -10.73, -10.73, -10.47, -10.47, -10.47, -10.47, -10.47, -10.82, -10.82, -11.17, -10.48, -10.81, -10.81, -10.43, -10.43, -10.43, -10.01, -10.01, -10.43, -9.97, -9.97, -9.97, -9.44, -9.92, -9.34, -8.41, -8.41, -7.21, -7.21, -6.85, -6.85, -5.73, -4.74, -4.74, -3.85, -3.85, -2.91, -2.81, -1.61, -1.61, -1.61, 0.0, 0.0, 2.45, 4.65, 4.65, 5.4, 5.4, 2.37, 4.32, 4.32, 4.15, 3.53, 4.23, 4.23, 5.7, 5.7, 5.46, 5.21, 4.2, 4.0, 2.33, 2.33, 2.06, 2.06, 2.06, 1.11, 1.11, 1.26, 0.0, 0.0, 1.04, 2.04, 1.91, 2.28, 2.39, 2.7, 3.87, 4.05, 4.23, 4.58, 6.21, 8.59, 13.28, 13.39, -0.0, -12.19, -14.86, -16.81, -20.38, -19.52, -18.85, -17.43, -15.65, -12.96, -12.3, -12.3, -12.3]}]